Observation data for Endee on 12/07/2018      Previous  Date       Current Mesonet Observations  Soil Data  Daily Summary Page  Observations in Plain Language
KEN1 070600Z 04001KT M06/M07 A3029 RMK A01 T10611071  RH  093%=      5-min Rain = 0
KEN1 070601Z 04001KT M06/M07 A3029 RMK A01 T10601069  RH  093%=      5-min Rain = 0
KEN1 070602Z 04001KT M06/M07 A3029 RMK A01 T10591069  RH  093%=      5-min Rain = 0
KEN1 070603Z 04001KT M06/M07 A3029 RMK A01 T10591069  RH  092%=      5-min Rain = 0
KEN1 070604Z 04001KT M06/M07 A3029 RMK A01 T10581069  RH  092%=      5-min Rain = 0
KEN1 070605Z 04001KT M06/M07 A3029 RMK A01 T10571068  RH  092%=      5-min Rain = 0
KEN1 070606Z 04000KT M06/M07 A3029 RMK A01 T10561066  RH  092%=      5-min Rain = 0
KEN1 070607Z 00000KT M06/M07 A3029 RMK A01 T10551065  RH  092%=      5-min Rain = 0
KEN1 070608Z 00000KT M05/M07 A3029 RMK A01 T10541065  RH  092%=      5-min Rain = 0
KEN1 070609Z 00000KT M05/M07 A3029 RMK A01 T10541065  RH  092%=      5-min Rain = 0
KEN1 070610Z 00000KT M06/M07 A3029 RMK A01 T10561070  RH  090%=      5-min Rain = 0
KEN1 070611Z 00000KT M06/M08 A3029 RMK A01 T10591076  RH  088%=      5-min Rain = 0
KEN1 070612Z 14000KT M06/M08 A3029 RMK A01 T10601077  RH  088%=      5-min Rain = 0
KEN1 070613Z 15001KT M06/M07 A303 RMK A01 T10591074  RH  089%=      5-min Rain = 0
KEN1 070614Z 15001KT M06/M07 A3029 RMK A01 T10581071  RH  091%=      5-min Rain = 0
KEN1 070615Z 15002KT M06/M07 A3029 RMK A01 T10571069  RH  091%=      5-min Rain = 0
KEN1 070616Z 15002KT M06/M07 A3029 RMK A01 T10561068  RH  091%=      5-min Rain = 0
KEN1 070617Z 16002KT M06/M07 A3029 RMK A01 T10561069  RH  090%=      5-min Rain = 0
KEN1 070618Z 17002KT M06/M07 A3029 RMK A01 T10571071  RH  090%=      5-min Rain = 0
KEN1 070619Z 18001KT M06/M07 A3029 RMK A01 T10571071  RH  090%=      5-min Rain = 0
KEN1 070620Z 18000KT M06/M07 A3029 RMK A01 T10571071  RH  090%=      5-min Rain = 0
KEN1 070621Z 00000KT M06/M07 A3029 RMK A01 T10571072  RH  090%=      5-min Rain = 0
KEN1 070622Z 00000KT M06/M07 A3029 RMK A01 T10581072  RH  090%=      5-min Rain = 0
KEN1 070623Z 00000KT M06/M07 A3029 RMK A01 T10581072  RH  090%=      5-min Rain = 0
KEN1 070624Z 18000KT M06/M07 A3029 RMK A01 T10571070  RH  090%=      5-min Rain = 0
KEN1 070625Z 20001KT M06/M07 A3029 RMK A01 T10561070  RH  090%=      5-min Rain = 0
KEN1 070626Z 21002KT M06/M07 A3029 RMK A01 T10551069  RH  091%=      5-min Rain = 0
KEN1 070627Z 21002KT M06/M07 A3029 RMK A01 T10551068  RH  090%=      5-min Rain = 0
KEN1 070628Z 21002KT M05/M07 A3029 RMK A01 T10541069  RH  090%=      5-min Rain = 0
KEN1 070629Z 20002KT M06/M07 A3029 RMK A01 T10551070  RH  089%=      5-min Rain = 0
KEN1 070630Z 20002KT M06/M07 A303 RMK A01 T10551071  RH  089%=      5-min Rain = 0
KEN1 070631Z 19002KT M06/M07 A303 RMK A01 T10561073  RH  088%=      5-min Rain = 0
KEN1 070632Z 19001KT M06/M08 A303 RMK A01 T10581075  RH  088%=      5-min Rain = 0
KEN1 070633Z 19001KT M06/M08 A3029 RMK A01 T10611078  RH  088%=      5-min Rain = 0
KEN1 070634Z 00000KT M06/M08 A3029 RMK A01 T10621078  RH  088%=      5-min Rain = 0
KEN1 070635Z 00000KT M06/M08 A3029 RMK A01 T10621077  RH  089%=      5-min Rain = 0
KEN1 070636Z 00000KT M06/M08 A3029 RMK A01 T10621076  RH  090%=      5-min Rain = 0
KEN1 070637Z 00000KT M06/M07 A3029 RMK A01 T10611073  RH  091%=      5-min Rain = 0
KEN1 070638Z 00000KT M06/M07 A3029 RMK A01 T10611073  RH  091%=      5-min Rain = 0
KEN1 070639Z 00000KT M06/M08 A3029 RMK A01 T10631077  RH  090%=      5-min Rain = 0
KEN1 070640Z 00000KT M06/M08 A3029 RMK A01 T10631077  RH  090%=      5-min Rain = 0
KEN1 070641Z 00000KT M06/M08 A3029 RMK A01 T10631076  RH  091%=      5-min Rain = 0
KEN1 070642Z 00000KT M06/M07 A3029 RMK A01 T10621074  RH  091%=      5-min Rain = 0
KEN1 070643Z 00000KT M06/M07 A3029 RMK A01 T10611072  RH  092%=      5-min Rain = 0
KEN1 070644Z 00000KT M06/M07 A3029 RMK A01 T10591070  RH  092%=      5-min Rain = 0
KEN1 070645Z 00000KT M06/M07 A3029 RMK A01 T10591069  RH  092%=      5-min Rain = 0
KEN1 070646Z 00000KT M06/M07 A3029 RMK A01 T10581069  RH  092%=      5-min Rain = 0
KEN1 070647Z 00000KT M06/M07 A3029 RMK A01 T10581069  RH  092%=      5-min Rain = 0
KEN1 070648Z 00000KT M06/M07 A3029 RMK A01 T10571068  RH  092%=      5-min Rain = 0
KEN1 070649Z 00000KT M06/M07 A3029 RMK A01 T10561067  RH  092%=      5-min Rain = 0
KEN1 070650Z 00000KT M06/M07 A3029 RMK A01 T10571068  RH  092%=      5-min Rain = 0
KEN1 070651Z 00000KT M06/M07 A3029 RMK A01 T10571068  RH  092%=      5-min Rain = 0
KEN1 070652Z 00000KT M06/M07 A3029 RMK A01 T10571068  RH  092%=      5-min Rain = 0
KEN1 070653Z 00000KT M06/M07 A3029 RMK A01 T10571068  RH  091%=      5-min Rain = 0
KEN1 070654Z 00000KT M06/M07 A3028 RMK A01 T10561068  RH  091%=      5-min Rain = 0
KEN1 070655Z 00000KT M06/M07 A3028 RMK A01 T10561068  RH  091%=      5-min Rain = 0
KEN1 070656Z 20000KT M06/M07 A3028 RMK A01 T10551067  RH  091%=      5-min Rain = 0
KEN1 070657Z 20000KT M05/M07 A3028 RMK A01 T10541067  RH  091%=      5-min Rain = 0
KEN1 070658Z 00000KT M05/M07 A3028 RMK A01 T10541068  RH  090%=      5-min Rain = 0
KEN1 070659Z 00000KT M06/M07 A3028 RMK A01 T10551070  RH  089%=      5-min Rain = 0
KEN1 070700Z 00000KT M06/M07 A3029 RMK A01 T10551069  RH  090%=      5-min Rain = 0
KEN1 070701Z 00000KT M06/M07 A3029 RMK A01 T10551069  RH  090%=      5-min Rain = 0
KEN1 070702Z 00000KT M06/M07 A3028 RMK A01 T10561071  RH  090%=      5-min Rain = 0
KEN1 070703Z 00000KT M06/M07 A3028 RMK A01 T10561070  RH  090%=      5-min Rain = 0
KEN1 070704Z 00000KT M06/M07 A3029 RMK A01 T10551068  RH  090%=      5-min Rain = 0
KEN1 070705Z 00000KT M05/M07 A3029 RMK A01 T10541067  RH  091%=      5-min Rain = 0
KEN1 070706Z 00000KT M05/M07 A3029 RMK A01 T10541067  RH  091%=      5-min Rain = 0
KEN1 070707Z 00000KT M05/M07 A3029 RMK A01 T10531066  RH  091%=      5-min Rain = 0
KEN1 070708Z 00000KT M05/M07 A3028 RMK A01 T10531066  RH  091%=      5-min Rain = 0
KEN1 070709Z 00000KT M05/M07 A3028 RMK A01 T10531066  RH  091%=      5-min Rain = 0
KEN1 070710Z 00000KT M05/M07 A3028 RMK A01 T10521065  RH  090%=      5-min Rain = 0
KEN1 070711Z 00000KT M05/M07 A3028 RMK A01 T10521065  RH  090%=      5-min Rain = 0
KEN1 070712Z 00000KT M05/M07 A3028 RMK A01 T10521066  RH  090%=      5-min Rain = 0
KEN1 070713Z 00000KT M05/M07 A3028 RMK A01 T10521067  RH  089%=      5-min Rain = 0
KEN1 070714Z 00000KT M05/M07 A3028 RMK A01 T10521067  RH  089%=      5-min Rain = 0
KEN1 070715Z 00000KT M05/M07 A3028 RMK A01 T10541071  RH  087%=      5-min Rain = 0
KEN1 070716Z 00000KT M06/M07 A3028 RMK A01 T10551073  RH  087%=      5-min Rain = 0
KEN1 070717Z 00000KT M06/M07 A3029 RMK A01 T10551073  RH  087%=      5-min Rain = 0
KEN1 070718Z 00000KT M06/M07 A3029 RMK A01 T10551072  RH  088%=      5-min Rain = 0
KEN1 070719Z 00000KT M06/M07 A3029 RMK A01 T10551072  RH  088%=      5-min Rain = 0
KEN1 070720Z 00000KT M06/M07 A3029 RMK A01 T10561072  RH  089%=      5-min Rain = 0
KEN1 070721Z 00000KT M06/M07 A3029 RMK A01 T10561072  RH  089%=      5-min Rain = 0
KEN1 070722Z 00000KT M06/M07 A3029 RMK A01 T10561072  RH  088%=      5-min Rain = 0
KEN1 070723Z 00000KT M06/M07 A3029 RMK A01 T10571073  RH  088%=      5-min Rain = 0
KEN1 070724Z 20000KT M06/M07 A3029 RMK A01 T10571074  RH  088%=      5-min Rain = 0
KEN1 070725Z 20000KT M06/M07 A3029 RMK A01 T10581074  RH  088%=      5-min Rain = 0
KEN1 070726Z 23001KT M06/M07 A3029 RMK A01 T10581074  RH  088%=      5-min Rain = 0
KEN1 070727Z 24002KT M06/M08 A3029 RMK A01 T10591075  RH  089%=      5-min Rain = 0
KEN1 070728Z 24002KT M06/M08 A3029 RMK A01 T10591075  RH  089%=      5-min Rain = 0
KEN1 070729Z 25002KT M06/M08 A3029 RMK A01 T10601075  RH  089%=      5-min Rain = 0
KEN1 070730Z 25002KT M06/M08 A3029 RMK A01 T10611076  RH  089%=      5-min Rain = 0
KEN1 070731Z 25002KT M06/M08 A3029 RMK A01 T10611076  RH  089%=      5-min Rain = 0
KEN1 070732Z 25002KT M06/M08 A3029 RMK A01 T10611075  RH  090%=      5-min Rain = 0
KEN1 070733Z 25002KT M06/M08 A3029 RMK A01 T10611075  RH  090%=      5-min Rain = 0
KEN1 070734Z 26002KT M06/M07 A3029 RMK A01 T10611074  RH  090%=      5-min Rain = 0
KEN1 070735Z 27002KT M06/M07 A3028 RMK A01 T10611074  RH  090%=      5-min Rain = 0
KEN1 070736Z 27002KT M06/M07 A3028 RMK A01 T10611074  RH  090%=      5-min Rain = 0
KEN1 070737Z 27001KT M06/M07 A3028 RMK A01 T10611074  RH  090%=      5-min Rain = 0
KEN1 070738Z 27001KT M06/M07 A3028 RMK A01 T10611074  RH  090%=      5-min Rain = 0
KEN1 070739Z 27001KT M06/M07 A3028 RMK A01 T10611074  RH  090%=      5-min Rain = 0
KEN1 070740Z 27001KT M06/M07 A3028 RMK A01 T10611074  RH  090%=      5-min Rain = 0
KEN1 070741Z 27001KT M06/M07 A3028 RMK A01 T10611074  RH  090%=      5-min Rain = 0
KEN1 070742Z 27001KT M06/M07 A3028 RMK A01 T10611074  RH  090%=      5-min Rain = 0
KEN1 070743Z 23002KT M06/M07 A3028 RMK A01 T10611074  RH  090%=      5-min Rain = 0
KEN1 070744Z 23002KT M06/M07 A3029 RMK A01 T10611074  RH  090%=      5-min Rain = 0
KEN1 070745Z 23003KT M06/M07 A3029 RMK A01 T10611074  RH  090%=      5-min Rain = 0
KEN1 070746Z 23003KT M06/M07 A3029 RMK A01 T10611074  RH  090%=      5-min Rain = 0
KEN1 070747Z 22003KT M06/M07 A3029 RMK A01 T10611074  RH  090%=      5-min Rain = 0
KEN1 070748Z 22003KT M06/M08 A3029 RMK A01 T10621075  RH  090%=      5-min Rain = 0
KEN1 070749Z 21003KT M06/M08 A3029 RMK A01 T10621075  RH  090%=      5-min Rain = 0
KEN1 070750Z 21003KT M06/M08 A3028 RMK A01 T10621075  RH  091%=      5-min Rain = 0
KEN1 070751Z 20003KT M06/M08 A3028 RMK A01 T10621075  RH  091%=      5-min Rain = 0
KEN1 070752Z 19003KT M06/M08 A3028 RMK A01 T10621075  RH  091%=      5-min Rain = 0
KEN1 070753Z 19004KT M06/M08 A3028 RMK A01 T10621075  RH  091%=      5-min Rain = 0
KEN1 070754Z 19005KT M06/M07 A3029 RMK A01 T10621073  RH  091%=      5-min Rain = 0
KEN1 070755Z 18005KT M06/M07 A3029 RMK A01 T10611073  RH  091%=      5-min Rain = 0
KEN1 070756Z 18006KT M06/M07 A3029 RMK A01 T10611073  RH  091%=      5-min Rain = 0
KEN1 070757Z 18006KT M06/M07 A3029 RMK A01 T10601071  RH  092%=      5-min Rain = 0
KEN1 070758Z 18006KT M06/M07 A3029 RMK A01 T10591070  RH  092%=      5-min Rain = 0
KEN1 070759Z 18007KT M06/M07 A3029 RMK A01 T10581069  RH  092%=      5-min Rain = 0
KEN1 070800Z 18007KT M06/M07 A3029 RMK A01 T10571068  RH  092%=      5-min Rain = 0
KEN1 070801Z 18007KT M06/M07 A3029 RMK A01 T10571068  RH  092%=      5-min Rain = 0
KEN1 070802Z 18007KT M06/M07 A3029 RMK A01 T10561068  RH  092%=      5-min Rain = 0
KEN1 070803Z 18007KT M06/M07 A3029 RMK A01 T10561068  RH  091%=      5-min Rain = 0
KEN1 070804Z 17006KT M06/M07 A3028 RMK A01 T10561068  RH  091%=      5-min Rain = 0
KEN1 070805Z 17006KT M06/M07 A3028 RMK A01 T10571069  RH  091%=      5-min Rain = 0
KEN1 070806Z 17006KT M06/M07 A3028 RMK A01 T10571069  RH  091%=      5-min Rain = 0
KEN1 070807Z 17006KT M06/M07 A3028 RMK A01 T10571070  RH  091%=      5-min Rain = 0
KEN1 070808Z 17006KT M06/M07 A3028 RMK A01 T10571070  RH  091%=      5-min Rain = 0
KEN1 070809Z 17005KT M06/M07 A3028 RMK A01 T10581070  RH  091%=      5-min Rain = 0
KEN1 070810Z 17005KT M06/M07 A3029 RMK A01 T10581070  RH  091%=      5-min Rain = 0
KEN1 070811Z 17006KT M06/M07 A3029 RMK A01 T10581070  RH  091%=      5-min Rain = 0
KEN1 070812Z 17006KT M06/M07 A3029 RMK A01 T10581070  RH  091%=      5-min Rain = 0
KEN1 070813Z 18006KT M06/M07 A3029 RMK A01 T10581070  RH  091%=      5-min Rain = 0
KEN1 070814Z 18006KT M06/M07 A3029 RMK A01 T10581070  RH  091%=      5-min Rain = 0
KEN1 070815Z 18006KT M06/M07 A3029 RMK A01 T10581070  RH  091%=      5-min Rain = 0
KEN1 070816Z 18006KT M06/M07 A3029 RMK A01 T10581070  RH  091%=      5-min Rain = 0
KEN1 070817Z 18006KT M06/M07 A3029 RMK A01 T10581070  RH  091%=      5-min Rain = 0
KEN1 070818Z 18006KT M06/M07 A3029 RMK A01 T10581070  RH  092%=      5-min Rain = 0
KEN1 070819Z 18006KT M06/M07 A3029 RMK A01 T10581069  RH  092%=      5-min Rain = 0
KEN1 070820Z 18007KT M06/M07 A3029 RMK A01 T10581069  RH  092%=      5-min Rain = 0
KEN1 070821Z 18006KT M06/M07 A3029 RMK A01 T10581069  RH  092%=      5-min Rain = 0
KEN1 070822Z 18006KT M06/M07 A3029 RMK A01 T10581069  RH  092%=      5-min Rain = 0
KEN1 070823Z 19006KT M06/M07 A3029 RMK A01 T10581069  RH  092%=      5-min Rain = 0
KEN1 070824Z 19006KT M06/M07 A3029 RMK A01 T10581069  RH  092%=      5-min Rain = 0
KEN1 070825Z 19006KT M06/M07 A3029 RMK A01 T10581069  RH  092%=      5-min Rain = 0
KEN1 070826Z 18006KT M06/M07 A3029 RMK A01 T10591070  RH  092%=      5-min Rain = 0
KEN1 070827Z 18006KT M06/M07 A3029 RMK A01 T10581069  RH  092%=      5-min Rain = 0
KEN1 070828Z 18006KT M06/M07 A3029 RMK A01 T10581068  RH  092%=      5-min Rain = 0
KEN1 070829Z 18006KT M06/M07 A3029 RMK A01 T10581068  RH  092%=      5-min Rain = 0
KEN1 070830Z 18006KT M06/M07 A3029 RMK A01 T10571068  RH  092%=      5-min Rain = 0
KEN1 070831Z 18005KT M06/M07 A3029 RMK A01 T10561067  RH  093%=      5-min Rain = 0
KEN1 070832Z 18005KT M06/M07 A3029 RMK A01 T10561067  RH  093%=      5-min Rain = 0
KEN1 070833Z 18004KT M06/M07 A3029 RMK A01 T10561067  RH  092%=      5-min Rain = 0
KEN1 070834Z 19004KT M06/M07 A3029 RMK A01 T10561067  RH  092%=      5-min Rain = 0
KEN1 070835Z 19004KT M06/M07 A303 RMK A01 T10561067  RH  092%=      5-min Rain = 0
KEN1 070836Z 19003KT M06/M07 A303 RMK A01 T10571068  RH  092%=      5-min Rain = 0
KEN1 070837Z 19003KT M06/M07 A303 RMK A01 T10571069  RH  092%=      5-min Rain = 0
KEN1 070838Z 20003KT M06/M07 A303 RMK A01 T10581069  RH  092%=      5-min Rain = 0
KEN1 070839Z 20002KT M06/M07 A303 RMK A01 T10581070  RH  092%=      5-min Rain = 0
KEN1 070840Z 20002KT M06/M07 A303 RMK A01 T10581070  RH  092%=      5-min Rain = 0
KEN1 070841Z 20002KT M06/M07 A303 RMK A01 T10591070  RH  092%=      5-min Rain = 0
KEN1 070842Z 20002KT M06/M07 A303 RMK A01 T10591070  RH  092%=      5-min Rain = 0
KEN1 070843Z 20002KT M06/M07 A303 RMK A01 T10591070  RH  092%=      5-min Rain = 0
KEN1 070844Z 20002KT M06/M07 A303 RMK A01 T10591070  RH  092%=      5-min Rain = 0
KEN1 070845Z 20002KT M06/M07 A303 RMK A01 T10591070  RH  092%=      5-min Rain = 0
KEN1 070846Z 20002KT M06/M07 A3029 RMK A01 T10601071  RH  092%=      5-min Rain = 0
KEN1 070847Z 19003KT M06/M07 A3029 RMK A01 T10601070  RH  092%=      5-min Rain = 0
KEN1 070848Z 20003KT M06/M07 A3029 RMK A01 T10601071  RH  092%=      5-min Rain = 0
KEN1 070849Z 20003KT M06/M07 A303 RMK A01 T10601071  RH  092%=      5-min Rain = 0
KEN1 070850Z 20003KT M06/M07 A3029 RMK A01 T10601070  RH  092%=      5-min Rain = 0
KEN1 070851Z 20003KT M06/M07 A3029 RMK A01 T10601070  RH  092%=      5-min Rain = 0
KEN1 070852Z 20003KT M06/M07 A3029 RMK A01 T10601070  RH  092%=      5-min Rain = 0
KEN1 070853Z 20004KT M06/M07 A3029 RMK A01 T10601070  RH  093%=      5-min Rain = 0
KEN1 070854Z 20004KT M06/M07 A3029 RMK A01 T10591069  RH  093%=      5-min Rain = 0
KEN1 070855Z 20005KT M06/M07 A3029 RMK A01 T10591069  RH  093%=      5-min Rain = 0
KEN1 070856Z 19005KT M06/M07 A3029 RMK A01 T10591069  RH  093%=      5-min Rain = 0
KEN1 070857Z 19005KT M06/M07 A3029 RMK A01 T10581068  RH  093%=      5-min Rain = 0
KEN1 070858Z 18005KT M06/M07 A3029 RMK A01 T10571067  RH  093%=      5-min Rain = 0
KEN1 070859Z 18006KT M06/M07 A3029 RMK A01 T10561066  RH  093%=      5-min Rain = 0
KEN1 070900Z 18006KT M06/M07 A3029 RMK A01 T10551065  RH  093%=      5-min Rain = 0
KEN1 070901Z 18006KT M06/M07 A3029 RMK A01 T10551065  RH  093%=      5-min Rain = 0
KEN1 070902Z 18006KT M05/M06 A3029 RMK A01 T10541064  RH  093%=      5-min Rain = 0
KEN1 070903Z 18005KT M05/M06 A3029 RMK A01 T10541064  RH  093%=      5-min Rain = 0
KEN1 070904Z 18005KT M05/M07 A3029 RMK A01 T10541065  RH  092%=      5-min Rain = 0
KEN1 070905Z 18005KT M05/M06 A3028 RMK A01 T10541064  RH  092%=      5-min Rain = 0
KEN1 070906Z 18004KT M05/M06 A3028 RMK A01 T10531064  RH  092%=      5-min Rain = 0
KEN1 070907Z 17004KT M05/M07 A3028 RMK A01 T10531065  RH  092%=      5-min Rain = 0
KEN1 070908Z 17004KT M05/M07 A3028 RMK A01 T10541065  RH  092%=      5-min Rain = 0
KEN1 070909Z 18004KT M05/M07 A3028 RMK A01 T10541065  RH  092%=      5-min Rain = 0
KEN1 070910Z 17004KT M05/M07 A3028 RMK A01 T10541065  RH  092%=      5-min Rain = 0
KEN1 070911Z 17003KT M05/M06 A3028 RMK A01 T10531064  RH  092%=      5-min Rain = 0
KEN1 070912Z 16003KT M05/M07 A3027 RMK A01 T10541065  RH  092%=      5-min Rain = 0
KEN1 070913Z 16003KT M05/M07 A3027 RMK A01 T10531065  RH  092%=      5-min Rain = 0
KEN1 070914Z 16004KT M05/M07 A3027 RMK A01 T10541065  RH  092%=      5-min Rain = 0
KEN1 070915Z 16004KT M05/M07 A3027 RMK A01 T10541065  RH  092%=      5-min Rain = 0
KEN1 070916Z 16005KT M05/M07 A3027 RMK A01 T10541065  RH  092%=      5-min Rain = 0
KEN1 070917Z 16005KT M05/M07 A3027 RMK A01 T10541065  RH  092%=      5-min Rain = 0
KEN1 070918Z 15004KT M05/M06 A3027 RMK A01 T10531064  RH  092%=      5-min Rain = 0
KEN1 070919Z 15004KT M05/M06 A3027 RMK A01 T10531063  RH  092%=      5-min Rain = 0
KEN1 070920Z 16005KT M05/M06 A3027 RMK A01 T10531064  RH  092%=      5-min Rain = 0
KEN1 070921Z 17005KT M05/M06 A3027 RMK A01 T10531064  RH  092%=      5-min Rain = 0
KEN1 070922Z 16004KT M05/M06 A3027 RMK A01 T10531064  RH  092%=      5-min Rain = 0
KEN1 070923Z 16004KT M05/M06 A3027 RMK A01 T10531064  RH  092%=      5-min Rain = 0
KEN1 070924Z 15003KT M05/M06 A3027 RMK A01 T10531064  RH  092%=      5-min Rain = 0
KEN1 070925Z 14003KT M05/M06 A3027 RMK A01 T10531063  RH  092%=      5-min Rain = 0
KEN1 070926Z 15003KT M05/M06 A3027 RMK A01 T10531064  RH  092%=      5-min Rain = 0
KEN1 070927Z 15003KT M05/M06 A3027 RMK A01 T10521063  RH  092%=      5-min Rain = 0
KEN1 070928Z 15003KT M05/M06 A3027 RMK A01 T10531063  RH  092%=      5-min Rain = 0
KEN1 070929Z 15003KT M05/M06 A3027 RMK A01 T10531064  RH  092%=      5-min Rain = 0
KEN1 070930Z 14003KT M05/M06 A3027 RMK A01 T10521063  RH  092%=      5-min Rain = 0
KEN1 070931Z 14002KT M05/M06 A3027 RMK A01 T10531064  RH  092%=      5-min Rain = 0
KEN1 070932Z 13002KT M05/M06 A3027 RMK A01 T10531064  RH  092%=      5-min Rain = 0
KEN1 070933Z 12003KT M05/M07 A3027 RMK A01 T10531065  RH  092%=      5-min Rain = 0
KEN1 070934Z 13002KT M05/M07 A3027 RMK A01 T10531065  RH  092%=      5-min Rain = 0
KEN1 070935Z 13002KT M05/M07 A3027 RMK A01 T10541065  RH  092%=      5-min Rain = 0
KEN1 070936Z 14002KT M05/M07 A3027 RMK A01 T10541065  RH  092%=      5-min Rain = 0
KEN1 070937Z 12002KT M05/M07 A3027 RMK A01 T10541066  RH  092%=      5-min Rain = 0
KEN1 070938Z 13002KT M05/M07 A3027 RMK A01 T10541065  RH  092%=      5-min Rain = 0
KEN1 070939Z 13002KT M06/M07 A3027 RMK A01 T10551066  RH  092%=      5-min Rain = 0
KEN1 070940Z 13001KT M06/M07 A3027 RMK A01 T10551066  RH  092%=      5-min Rain = 0
KEN1 070941Z 12001KT M06/M07 A3027 RMK A01 T10551066  RH  092%=      5-min Rain = 0
KEN1 070942Z 12000KT M06/M07 A3027 RMK A01 T10551066  RH  092%=      5-min Rain = 0
KEN1 070943Z 00001KT M06/M07 A3027 RMK A01 T10551066  RH  092%=      5-min Rain = 0
KEN1 070944Z 00001KT M06/M07 A3027 RMK A01 T10551065  RH  093%=      5-min Rain = 0
KEN1 070945Z 35001KT M05/M06 A3027 RMK A01 T10541064  RH  093%=      5-min Rain = 0
KEN1 070946Z 35001KT M05/M06 A3027 RMK A01 T10541063  RH  093%=      5-min Rain = 0
KEN1 070947Z 34001KT M05/M06 A3027 RMK A01 T10531062  RH  093%=      5-min Rain = 0
KEN1 070948Z 00001KT M05/M06 A3027 RMK A01 T10531062  RH  093%=      5-min Rain = 0
KEN1 070949Z 05000KT M05/M06 A3026 RMK A01 T10521061  RH  093%=      5-min Rain = 0
KEN1 070950Z 01002KT M05/M06 A3026 RMK A01 T10511061  RH  093%=      5-min Rain = 0
KEN1 070951Z 02002KT M05/M06 A3026 RMK A01 T10511061  RH  093%=      5-min Rain = 0
KEN1 070952Z 03002KT M05/M06 A3026 RMK A01 T10511061  RH  093%=      5-min Rain = 0
KEN1 070953Z 05002KT M05/M06 A3026 RMK A01 T10521062  RH  093%=      5-min Rain = 0
KEN1 070954Z 06002KT M05/M06 A3026 RMK A01 T10521063  RH  092%=      5-min Rain = 0
KEN1 070955Z 06002KT M05/M06 A3026 RMK A01 T10531063  RH  092%=      5-min Rain = 0
KEN1 070956Z 07001KT M05/M06 A3026 RMK A01 T10541064  RH  092%=      5-min Rain = 0
KEN1 070957Z 08001KT M05/M07 A3026 RMK A01 T10541065  RH  092%=      5-min Rain = 0
KEN1 070958Z 09001KT M05/M07 A3026 RMK A01 T10541065  RH  092%=      5-min Rain = 0
KEN1 070959Z 10001KT M05/M07 A3026 RMK A01 T10541065  RH  092%=      5-min Rain = 0
KEN1 071000Z 10001KT M06/M07 A3026 RMK A01 T10551065  RH  093%=      5-min Rain = 0
KEN1 071001Z 11001KT M05/M06 A3026 RMK A01 T10541064  RH  093%=      5-min Rain = 0
KEN1 071002Z 11001KT M06/M07 A3026 RMK A01 T10551065  RH  093%=      5-min Rain = 0
KEN1 071003Z 13001KT M06/M07 A3026 RMK A01 T10551065  RH  093%=      5-min Rain = 0
KEN1 071004Z 13001KT M06/M07 A3026 RMK A01 T10551065  RH  093%=      5-min Rain = 0
KEN1 071005Z 12002KT M06/M07 A3026 RMK A01 T10551065  RH  093%=      5-min Rain = 0
KEN1 071006Z 11002KT M06/M07 A3025 RMK A01 T10551065  RH  093%=      5-min Rain = 0
KEN1 071007Z 10001KT M06/M07 A3025 RMK A01 T10551065  RH  093%=      5-min Rain = 0
KEN1 071008Z 11002KT M06/M07 A3025 RMK A01 T10561066  RH  093%=      5-min Rain = 0
KEN1 071009Z 12002KT M06/M07 A3025 RMK A01 T10561065  RH  093%=      5-min Rain = 0
KEN1 071010Z 12001KT M06/M07 A3025 RMK A01 T10561065  RH  093%=      5-min Rain = 0
KEN1 071011Z 12002KT M06/M07 A3025 RMK A01 T10561065  RH  093%=      5-min Rain = 0
KEN1 071012Z 12002KT M06/M07 A3025 RMK A01 T10551065  RH  093%=      5-min Rain = 0
KEN1 071013Z 12002KT M06/M07 A3025 RMK A01 T10561066  RH  093%=      5-min Rain = 0
KEN1 071014Z 11002KT M06/M07 A3025 RMK A01 T10561065  RH  093%=      5-min Rain = 0
KEN1 071015Z 12002KT M06/M07 A3025 RMK A01 T10561065  RH  093%=      5-min Rain = 0
KEN1 071016Z 12002KT M06/M07 A3025 RMK A01 T10551065  RH  093%=      5-min Rain = 0
KEN1 071017Z 13002KT M06/M06 A3025 RMK A01 T10551064  RH  093%=      5-min Rain = 0
KEN1 071018Z 13002KT M05/M06 A3025 RMK A01 T10541063  RH  093%=      5-min Rain = 0
KEN1 071019Z 14002KT M05/M06 A3025 RMK A01 T10531061  RH  094%=      5-min Rain = 0
KEN1 071020Z 15003KT M05/M06 A3025 RMK A01 T10511060  RH  094%=      5-min Rain = 0
KEN1 071021Z 15003KT M05/M06 A3025 RMK A01 T10491058  RH  094%=      5-min Rain = 0
KEN1 071022Z 15003KT M05/M06 A3025 RMK A01 T10471055  RH  094%=      5-min Rain = 0
KEN1 071023Z 16003KT M05/M05 A3025 RMK A01 T10461054  RH  094%=      5-min Rain = 0
KEN1 071024Z 16003KT M05/M06 A3025 RMK A01 T10451055  RH  093%=      5-min Rain = 0
KEN1 071025Z 16003KT M05/M06 A3025 RMK A01 T10471058  RH  092%=      5-min Rain = 0
KEN1 071026Z 16003KT M05/M06 A3025 RMK A01 T10481059  RH  092%=      5-min Rain = 0
KEN1 071027Z 16003KT M05/M06 A3025 RMK A01 T10481060  RH  091%=      5-min Rain = 0
KEN1 071028Z 15003KT M05/M06 A3025 RMK A01 T10461057  RH  092%=      5-min Rain = 0
KEN1 071029Z 15003KT M04/M05 A3025 RMK A01 T10441054  RH  093%=      5-min Rain = 0
KEN1 071030Z 14003KT M04/M06 A3025 RMK A01 T10441055  RH  092%=      5-min Rain = 0
KEN1 071031Z 14002KT M04/M06 A3025 RMK A01 T10441055  RH  092%=      5-min Rain = 0
KEN1 071032Z 14002KT M04/M05 A3025 RMK A01 T10431054  RH  092%=      5-min Rain = 0
KEN1 071033Z 13002KT M04/M05 A3025 RMK A01 T10431054  RH  092%=      5-min Rain = 0
KEN1 071034Z 12002KT M04/M05 A3025 RMK A01 T10411052  RH  092%=      5-min Rain = 0
KEN1 071035Z 12002KT M04/M05 A3025 RMK A01 T10401051  RH  092%=      5-min Rain = 0
KEN1 071036Z 13001KT M04/M05 A3025 RMK A01 T10401052  RH  092%=      5-min Rain = 0
KEN1 071037Z 13001KT M04/M05 A3025 RMK A01 T10411054  RH  091%=      5-min Rain = 0
KEN1 071038Z 13001KT M04/M06 A3025 RMK A01 T10431056  RH  090%=      5-min Rain = 0
KEN1 071039Z 13002KT M04/M06 A3025 RMK A01 T10441059  RH  090%=      5-min Rain = 0
KEN1 071040Z 13002KT M05/M06 A3025 RMK A01 T10461061  RH  089%=      5-min Rain = 0
KEN1 071041Z 12002KT M05/M06 A3025 RMK A01 T10471063  RH  089%=      5-min Rain = 0
KEN1 071042Z 12001KT M05/M07 A3025 RMK A01 T10501065  RH  089%=      5-min Rain = 0
KEN1 071043Z 12001KT M05/M07 A3025 RMK A01 T10521067  RH  089%=      5-min Rain = 0
KEN1 071044Z 12000KT M05/M07 A3025 RMK A01 T10541069  RH  089%=      5-min Rain = 0
KEN1 071045Z 00000KT M06/M07 A3025 RMK A01 T10551070  RH  090%=      5-min Rain = 0
KEN1 071046Z 12000KT M06/M07 A3025 RMK A01 T10561070  RH  090%=      5-min Rain = 0
KEN1 071047Z 08001KT M06/M07 A3025 RMK A01 T10571071  RH  090%=      5-min Rain = 0
KEN1 071048Z 08001KT M06/M07 A3025 RMK A01 T10581071  RH  091%=      5-min Rain = 0
KEN1 071049Z 08001KT M06/M07 A3025 RMK A01 T10591071  RH  091%=      5-min Rain = 0
KEN1 071050Z 08001KT M06/M07 A3025 RMK A01 T10591071  RH  091%=      5-min Rain = 0
KEN1 071051Z 08001KT M06/M07 A3025 RMK A01 T10601071  RH  092%=      5-min Rain = 0
KEN1 071052Z 09001KT M06/M07 A3025 RMK A01 T10601071  RH  092%=      5-min Rain = 0
KEN1 071053Z 10001KT M06/M07 A3025 RMK A01 T10601071  RH  092%=      5-min Rain = 0
KEN1 071054Z 10001KT M06/M07 A3025 RMK A01 T10601071  RH  092%=      5-min Rain = 0
KEN1 071055Z 10000KT M06/M07 A3025 RMK A01 T10601071  RH  092%=      5-min Rain = 0
KEN1 071056Z 10000KT M06/M07 A3025 RMK A01 T10601071  RH  092%=      5-min Rain = 0
KEN1 071057Z 10001KT M06/M07 A3025 RMK A01 T10601070  RH  093%=      5-min Rain = 0
KEN1 071058Z 10001KT M06/M07 A3025 RMK A01 T10601070  RH  093%=      5-min Rain = 0
KEN1 071059Z 10002KT M06/M07 A3025 RMK A01 T10601070  RH  093%=      5-min Rain = 0
KEN1 071100Z 11002KT M06/M07 A3024 RMK A01 T10601070  RH  093%=      5-min Rain = 0
KEN1 071101Z 11002KT M06/M07 A3024 RMK A01 T10601070  RH  093%=      5-min Rain = 0
KEN1 071102Z 11002KT M06/M07 A3024 RMK A01 T10601070  RH  093%=      5-min Rain = 0
KEN1 071103Z 12002KT M06/M07 A3024 RMK A01 T10601070  RH  093%=      5-min Rain = 0
KEN1 071104Z 12002KT M06/M07 A3024 RMK A01 T10611070  RH  093%=      5-min Rain = 0
KEN1 071105Z 13002KT M06/M07 A3024 RMK A01 T10601070  RH  093%=      5-min Rain = 0
KEN1 071106Z 13002KT M06/M07 A3024 RMK A01 T10611070  RH  093%=      5-min Rain = 0
KEN1 071107Z 13002KT M06/M07 A3024 RMK A01 T10611071  RH  093%=      5-min Rain = 0
KEN1 071108Z 14002KT M06/M07 A3024 RMK A01 T10611070  RH  093%=      5-min Rain = 0
KEN1 071109Z 14002KT M06/M07 A3024 RMK A01 T10611070  RH  093%=      5-min Rain = 0
KEN1 071110Z 14002KT M06/M07 A3024 RMK A01 T10611070  RH  093%=      5-min Rain = 0
KEN1 071111Z 14002KT M06/M07 A3024 RMK A01 T10611070  RH  093%=      5-min Rain = 0
KEN1 071112Z 14002KT M06/M07 A3024 RMK A01 T10611070  RH  093%=      5-min Rain = 0
KEN1 071113Z 14002KT M06/M07 A3024 RMK A01 T10611070  RH  093%=      5-min Rain = 0
KEN1 071114Z 14002KT M06/M07 A3024 RMK A01 T10601069  RH  093%=      5-min Rain = 0
KEN1 071115Z 14002KT M06/M07 A3024 RMK A01 T10601069  RH  093%=      5-min Rain = 0
KEN1 071116Z 14002KT M06/M07 A3024 RMK A01 T10601069  RH  093%=      5-min Rain = 0
KEN1 071117Z 14002KT M06/M07 A3024 RMK A01 T10591068  RH  093%=      5-min Rain = 0
KEN1 071118Z 14002KT M06/M07 A3024 RMK A01 T10571065  RH  094%=      5-min Rain = 0
KEN1 071119Z 14002KT M06/M06 A3024 RMK A01 T10551063  RH  094%=      5-min Rain = 0
KEN1 071120Z 14002KT M05/M06 A3024 RMK A01 T10531060  RH  095%=      5-min Rain = 0
KEN1 071121Z 14002KT M05/M06 A3024 RMK A01 T10501057  RH  095%=      5-min Rain = 0
KEN1 071122Z 14002KT M05/M05 A3024 RMK A01 T10481054  RH  095%=      5-min Rain = 0
KEN1 071123Z 14002KT M05/M05 A3024 RMK A01 T10461052  RH  095%=      5-min Rain = 0
KEN1 071124Z 14002KT M05/M05 A3024 RMK A01 T10451052  RH  095%=      5-min Rain = 0
KEN1 071125Z 14002KT M04/M05 A3024 RMK A01 T10441052  RH  094%=      5-min Rain = 0
KEN1 071126Z 14002KT M04/M05 A3024 RMK A01 T10441053  RH  094%=      5-min Rain = 0
KEN1 071127Z 14001KT M04/M05 A3024 RMK A01 T10441053  RH  093%=      5-min Rain = 0
KEN1 071128Z 14001KT M04/M05 A3024 RMK A01 T10441053  RH  093%=      5-min Rain = 0
KEN1 071129Z 14001KT M04/M05 A3024 RMK A01 T10431053  RH  093%=      5-min Rain = 0
KEN1 071130Z 14000KT M04/M05 A3024 RMK A01 T10431053  RH  093%=      5-min Rain = 0
KEN1 071131Z 14000KT M05/M06 A3024 RMK A01 T10451056  RH  092%=      5-min Rain = 0
KEN1 071132Z 14000KT M05/M06 A3024 RMK A01 T10451057  RH  092%=      5-min Rain = 0
KEN1 071133Z 14000KT M05/M06 A3024 RMK A01 T10471059  RH  091%=      5-min Rain = 0
KEN1 071134Z 00000KT M05/M06 A3024 RMK A01 T10501063  RH  090%=      5-min Rain = 0
KEN1 071135Z 00000KT M05/M07 A3024 RMK A01 T10531068  RH  089%=      5-min Rain = 0
KEN1 071136Z 00000KT M06/M07 A3024 RMK A01 T10551071  RH  089%=      5-min Rain = 0
KEN1 071137Z 00000KT M06/M07 A3024 RMK A01 T10571072  RH  089%=      5-min Rain = 0
KEN1 071138Z 00000KT M06/M07 A3024 RMK A01 T10581072  RH  090%=      5-min Rain = 0
KEN1 071139Z 00000KT M06/M07 A3025 RMK A01 T10581071  RH  091%=      5-min Rain = 0
KEN1 071140Z 00000KT M06/M07 A3025 RMK A01 T10591071  RH  091%=      5-min Rain = 0
KEN1 071141Z 00000KT M06/M07 A3025 RMK A01 T10601072  RH  091%=      5-min Rain = 0
KEN1 071142Z 00000KT M06/M07 A3025 RMK A01 T10601072  RH  091%=      5-min Rain = 0
KEN1 071143Z 00000KT M06/M07 A3025 RMK A01 T10611072  RH  091%=      5-min Rain = 0
KEN1 071144Z 00000KT M06/M07 A3025 RMK A01 T10611072  RH  092%=      5-min Rain = 0
KEN1 071145Z 14000KT M06/M07 A3025 RMK A01 T10611072  RH  092%=      5-min Rain = 0
KEN1 071146Z 14001KT M06/M07 A3025 RMK A01 T10611072  RH  092%=      5-min Rain = 0
KEN1 071147Z 14001KT M06/M07 A3025 RMK A01 T10611072  RH  092%=      5-min Rain = 0
KEN1 071148Z 00003KT M06/M07 A3025 RMK A01 T10611072  RH  092%=      5-min Rain = 0
KEN1 071149Z 00003KT M06/M07 A3025 RMK A01 T10621073  RH  092%=      5-min Rain = 0
KEN1 071150Z 00003KT M06/M07 A3025 RMK A01 T10621073  RH  092%=      5-min Rain = 0
KEN1 071151Z 01003KT M06/M07 A3025 RMK A01 T10621072  RH  093%=      5-min Rain = 0
KEN1 071152Z 03003KT M06/M07 A3025 RMK A01 T10611070  RH  093%=      5-min Rain = 0
KEN1 071153Z 04003KT M06/M07 A3025 RMK A01 T10601069  RH  094%=      5-min Rain = 0
KEN1 071154Z 04003KT M06/M07 A3025 RMK A01 T10601069  RH  093%=      5-min Rain = 0
KEN1 071155Z 04003KT M06/M07 A3025 RMK A01 T10601070  RH  093%=      5-min Rain = 0
KEN1 071156Z 05002KT M06/M07 A3024 RMK A01 T10611071  RH  093%=      5-min Rain = 0
KEN1 071157Z 05003KT M06/M07 A3024 RMK A01 T10611071  RH  093%=      5-min Rain = 0
KEN1 071158Z 05002KT M06/M07 A3024 RMK A01 T10611071  RH  093%=      5-min Rain = 0
KEN1 071159Z 05002KT M06/M07 A3024 RMK A01 T10621071  RH  093%=      5-min Rain = 0
KEN1 071200Z 05003KT M06/M07 A3024 RMK A01 T10621071  RH  093%=      5-min Rain = 0
KEN1 071201Z 05003KT M06/M07 A3024 RMK A01 T10621072  RH  093%=      5-min Rain = 0
KEN1 071202Z 05003KT M06/M07 A3024 RMK A01 T10621072  RH  093%=      5-min Rain = 0
KEN1 071203Z 05003KT M06/M07 A3024 RMK A01 T10621072  RH  093%=      5-min Rain = 0
KEN1 071204Z 05003KT M06/M07 A3024 RMK A01 T10621072  RH  093%=      5-min Rain = 0
KEN1 071205Z 04004KT M06/M07 A3024 RMK A01 T10631073  RH  093%=      5-min Rain = 0
KEN1 071206Z 04004KT M06/M07 A3024 RMK A01 T10631073  RH  093%=      5-min Rain = 0
KEN1 071207Z 04004KT M06/M07 A3024 RMK A01 T10631073  RH  093%=      5-min Rain = 0
KEN1 071208Z 04004KT M06/M07 A3025 RMK A01 T10631072  RH  093%=      5-min Rain = 0
KEN1 071209Z 05003KT M06/M07 A3025 RMK A01 T10631073  RH  093%=      5-min Rain = 0
KEN1 071210Z 05003KT M06/M07 A3025 RMK A01 T10631072  RH  093%=      5-min Rain = 0
KEN1 071211Z 05003KT M06/M07 A3025 RMK A01 T10631072  RH  093%=      5-min Rain = 0
KEN1 071212Z 06003KT M06/M07 A3025 RMK A01 T10631073  RH  093%=      5-min Rain = 0
KEN1 071213Z 06003KT M06/M07 A3025 RMK A01 T10631073  RH  093%=      5-min Rain = 0
KEN1 071214Z 08003KT M06/M07 A3025 RMK A01 T10621072  RH  093%=      5-min Rain = 0
KEN1 071215Z 08002KT M06/M07 A3025 RMK A01 T10631073  RH  093%=      5-min Rain = 0
KEN1 071216Z 08002KT M06/M07 A3025 RMK A01 T10631072  RH  093%=      5-min Rain = 0
KEN1 071217Z 09002KT M06/M07 A3025 RMK A01 T10631073  RH  093%=      5-min Rain = 0
KEN1 071218Z 10002KT M06/M07 A3025 RMK A01 T10621072  RH  093%=      5-min Rain = 0
KEN1 071219Z 11002KT M06/M07 A3025 RMK A01 T10631073  RH  093%=      5-min Rain = 0
KEN1 071220Z 12002KT M06/M07 A3026 RMK A01 T10631073  RH  093%=      5-min Rain = 0
KEN1 071221Z 13002KT M06/M07 A3026 RMK A01 T10631073  RH  093%=      5-min Rain = 0
KEN1 071222Z 12002KT M06/M07 A3026 RMK A01 T10631073  RH  093%=      5-min Rain = 0
KEN1 071223Z 12003KT M06/M07 A3026 RMK A01 T10631073  RH  093%=      5-min Rain = 0
KEN1 071224Z 12003KT M06/M07 A3026 RMK A01 T10631074  RH  092%=      5-min Rain = 0
KEN1 071225Z 13003KT M06/M07 A3026 RMK A01 T10641074  RH  092%=      5-min Rain = 0
KEN1 071226Z 13003KT M06/M07 A3026 RMK A01 T10631074  RH  093%=      5-min Rain = 0
KEN1 071227Z 13003KT M06/M07 A3026 RMK A01 T10621071  RH  093%=      5-min Rain = 0
KEN1 071228Z 13002KT M06/M07 A3026 RMK A01 T10601068  RH  094%=      5-min Rain = 0
KEN1 071229Z 13002KT M06/M07 A3026 RMK A01 T10591067  RH  094%=      5-min Rain = 0
KEN1 071230Z 13003KT M06/M07 A3026 RMK A01 T10581066  RH  094%=      5-min Rain = 0
KEN1 071231Z 13003KT M06/M07 A3026 RMK A01 T10571065  RH  094%=      5-min Rain = 0
KEN1 071232Z 13003KT M06/M07 A3026 RMK A01 T10561065  RH  094%=      5-min Rain = 0
KEN1 071233Z 13003KT M06/M06 A3026 RMK A01 T10561064  RH  094%=      5-min Rain = 0
KEN1 071234Z 12003KT M06/M06 A3026 RMK A01 T10551064  RH  094%=      5-min Rain = 0
KEN1 071235Z 12003KT M06/M06 A3026 RMK A01 T10551063  RH  094%=      5-min Rain = 0
KEN1 071236Z 11003KT M06/M06 A3026 RMK A01 T10551064  RH  094%=      5-min Rain = 0
KEN1 071237Z 11002KT M06/M06 A3026 RMK A01 T10551064  RH  093%=      5-min Rain = 0
KEN1 071238Z 11002KT M06/M07 A3026 RMK A01 T10551065  RH  093%=      5-min Rain = 0
KEN1 071239Z 11001KT M06/M06 A3027 RMK A01 T10551064  RH  093%=      5-min Rain = 0
KEN1 071240Z 11001KT M06/M06 A3027 RMK A01 T10551064  RH  093%=      5-min Rain = 0
KEN1 071241Z 11001KT M06/M06 A3027 RMK A01 T10551064  RH  093%=      5-min Rain = 0
KEN1 071242Z 11000KT M06/M06 A3027 RMK A01 T10561064  RH  093%=      5-min Rain = 0
KEN1 071243Z 11001KT M06/M07 A3027 RMK A01 T10561066  RH  093%=      5-min Rain = 0
KEN1 071244Z 11001KT M06/M07 A3027 RMK A01 T10581067  RH  093%=      5-min Rain = 0
KEN1 071245Z 11001KT M06/M07 A3027 RMK A01 T10591069  RH  092%=      5-min Rain = 0
KEN1 071246Z 11001KT M06/M07 A3027 RMK A01 T10601070  RH  092%=      5-min Rain = 0
KEN1 071247Z 11001KT M06/M07 A3027 RMK A01 T10601071  RH  092%=      5-min Rain = 0
KEN1 071248Z 06001KT M06/M07 A3027 RMK A01 T10621073  RH  092%=      5-min Rain = 0
KEN1 071249Z 03003KT M06/M07 A3027 RMK A01 T10621073  RH  092%=      5-min Rain = 0
KEN1 071250Z 02004KT M06/M07 A3027 RMK A01 T10621073  RH  092%=      5-min Rain = 0
KEN1 071251Z 02004KT M06/M07 A3027 RMK A01 T10621072  RH  092%=      5-min Rain = 0
KEN1 071252Z 03004KT M06/M07 A3027 RMK A01 T10621071  RH  093%=      5-min Rain = 0
KEN1 071253Z 03003KT M06/M07 A3027 RMK A01 T10611071  RH  093%=      5-min Rain = 0
KEN1 071254Z 03003KT M06/M07 A3027 RMK A01 T10611070  RH  093%=      5-min Rain = 0
KEN1 071255Z 03002KT M06/M07 A3027 RMK A01 T10611070  RH  093%=      5-min Rain = 0
KEN1 071256Z 04002KT M06/M07 A3027 RMK A01 T10601070  RH  093%=      5-min Rain = 0
KEN1 071257Z 04002KT M06/M07 A3027 RMK A01 T10601069  RH  093%=      5-min Rain = 0
KEN1 071258Z 04002KT M06/M07 A3027 RMK A01 T10601069  RH  093%=      5-min Rain = 0
KEN1 071259Z 05002KT M06/M07 A3027 RMK A01 T10601069  RH  093%=      5-min Rain = 0
KEN1 071300Z 06002KT M06/M07 A3027 RMK A01 T10591068  RH  093%=      5-min Rain = 0
KEN1 071301Z 06003KT M06/M07 A3027 RMK A01 T10591068  RH  093%=      5-min Rain = 0
KEN1 071302Z 06003KT M06/M07 A3027 RMK A01 T10591069  RH  093%=      5-min Rain = 0
KEN1 071303Z 06003KT M06/M07 A3027 RMK A01 T10591069  RH  093%=      5-min Rain = 0
KEN1 071304Z 06002KT M06/M07 A3027 RMK A01 T10591069  RH  093%=      5-min Rain = 0
KEN1 071305Z 06002KT M06/M07 A3027 RMK A01 T10591069  RH  093%=      5-min Rain = 0
KEN1 071306Z 06002KT M06/M07 A3028 RMK A01 T10591069  RH  093%=      5-min Rain = 0
KEN1 071307Z 06002KT M06/M07 A3028 RMK A01 T10591069  RH  093%=      5-min Rain = 0
KEN1 071308Z 06001KT M06/M07 A3028 RMK A01 T10591069  RH  093%=      5-min Rain = 0
KEN1 071309Z 06001KT M06/M07 A3028 RMK A01 T10591069  RH  093%=      5-min Rain = 0
KEN1 071310Z 07002KT M06/M07 A3028 RMK A01 T10591069  RH  093%=      5-min Rain = 0
KEN1 071311Z 08001KT M06/M07 A3028 RMK A01 T10591069  RH  093%=      5-min Rain = 0
KEN1 071312Z 10001KT M06/M07 A3028 RMK A01 T10591069  RH  093%=      5-min Rain = 0
KEN1 071313Z 12001KT M06/M07 A3028 RMK A01 T10591068  RH  093%=      5-min Rain = 0
KEN1 071314Z 11001KT M06/M07 A3028 RMK A01 T10591069  RH  093%=      5-min Rain = 0
KEN1 071315Z 10001KT M06/M07 A3028 RMK A01 T10591068  RH  093%=      5-min Rain = 0
KEN1 071316Z 10001KT M06/M07 A3028 RMK A01 T10591068  RH  093%=      5-min Rain = 0
KEN1 071317Z 11001KT M06/M07 A3028 RMK A01 T10591069  RH  093%=      5-min Rain = 0
KEN1 071318Z 11001KT M06/M07 A3028 RMK A01 T10591069  RH  093%=      5-min Rain = 0
KEN1 071319Z 11001KT M06/M07 A3028 RMK A01 T10591069  RH  092%=      5-min Rain = 0
KEN1 071320Z 10002KT M06/M07 A3028 RMK A01 T10581069  RH  092%=      5-min Rain = 0
KEN1 071321Z 10001KT M06/M07 A3028 RMK A01 T10581068  RH  093%=      5-min Rain = 0
KEN1 071322Z 10000KT M06/M07 A3028 RMK A01 T10581068  RH  093%=      5-min Rain = 0
KEN1 071323Z 23000KT M06/M07 A3028 RMK A01 T10581068  RH  093%=      5-min Rain = 0
KEN1 071324Z 24001KT M06/M07 A3028 RMK A01 T10581068  RH  093%=      5-min Rain = 0
KEN1 071325Z 24001KT M06/M07 A3028 RMK A01 T10591068  RH  093%=      5-min Rain = 0
KEN1 071326Z 24000KT M06/M07 A3028 RMK A01 T10581068  RH  093%=      5-min Rain = 0
KEN1 071327Z 00000KT M06/M07 A3028 RMK A01 T10581068  RH  093%=      5-min Rain = 0
KEN1 071328Z 31000KT M06/M07 A3028 RMK A01 T10581068  RH  093%=      5-min Rain = 0
KEN1 071329Z 31001KT M06/M07 A3028 RMK A01 T10581067  RH  093%=      5-min Rain = 0
KEN1 071330Z 31001KT M06/M07 A3028 RMK A01 T10581067  RH  093%=      5-min Rain = 0
KEN1 071331Z 31001KT M06/M07 A3028 RMK A01 T10581067  RH  093%=      5-min Rain = 0
KEN1 071332Z 32002KT M06/M07 A3028 RMK A01 T10571066  RH  093%=      5-min Rain = 0
KEN1 071333Z 33001KT M06/M07 A3028 RMK A01 T10581067  RH  093%=      5-min Rain = 0
KEN1 071334Z 33001KT M06/M07 A3028 RMK A01 T10581067  RH  093%=      5-min Rain = 0
KEN1 071335Z 33001KT M06/M07 A3028 RMK A01 T10571066  RH  093%=      5-min Rain = 0
KEN1 071336Z 33001KT M06/M07 A3028 RMK A01 T10581067  RH  093%=      5-min Rain = 0
KEN1 071337Z 34001KT M06/M07 A3028 RMK A01 T10581067  RH  093%=      5-min Rain = 0
KEN1 071338Z 34001KT M06/M07 A3028 RMK A01 T10581067  RH  093%=      5-min Rain = 0
KEN1 071339Z 34001KT M06/M07 A3028 RMK A01 T10581067  RH  093%=      5-min Rain = 0
KEN1 071340Z 34000KT M06/M07 A3028 RMK A01 T10571066  RH  093%=      5-min Rain = 0
KEN1 071341Z 34000KT M06/M07 A3028 RMK A01 T10571067  RH  093%=      5-min Rain = 0
KEN1 071342Z 34001KT M06/M07 A3028 RMK A01 T10581067  RH  093%=      5-min Rain = 0
KEN1 071343Z 34001KT M06/M07 A3028 RMK A01 T10581067  RH  093%=      5-min Rain = 0
KEN1 071344Z 33001KT M06/M07 A3028 RMK A01 T10581067  RH  093%=      5-min Rain = 0
KEN1 071345Z 33001KT M06/M07 A3028 RMK A01 T10581067  RH  093%=      5-min Rain = 0
KEN1 071346Z 33001KT M06/M07 A3029 RMK A01 T10581067  RH  093%=      5-min Rain = 0
KEN1 071347Z 33001KT M06/M07 A3029 RMK A01 T10581067  RH  093%=      5-min Rain = 0
KEN1 071348Z 33001KT M06/M07 A3029 RMK A01 T10581067  RH  093%=      5-min Rain = 0
KEN1 071349Z 33001KT M06/M07 A3029 RMK A01 T10581067  RH  093%=      5-min Rain = 0
KEN1 071350Z 33001KT M06/M07 A3029 RMK A01 T10581067  RH  093%=      5-min Rain = 0
KEN1 071351Z 33000KT M06/M07 A3029 RMK A01 T10581067  RH  093%=      5-min Rain = 0
KEN1 071352Z 00000KT M06/M07 A3029 RMK A01 T10581067  RH  093%=      5-min Rain = 0
KEN1 071353Z 00000KT M06/M07 A3029 RMK A01 T10581067  RH  093%=      5-min Rain = 0
KEN1 071354Z 00000KT M06/M07 A3029 RMK A01 T10581067  RH  093%=      5-min Rain = 0
KEN1 071355Z 00000KT M06/M07 A3029 RMK A01 T10581067  RH  093%=      5-min Rain = 0
KEN1 071356Z 00000KT M06/M07 A3029 RMK A01 T10571067  RH  093%=      5-min Rain = 0
KEN1 071357Z 00000KT M06/M07 A3029 RMK A01 T10571067  RH  093%=      5-min Rain = 0
KEN1 071358Z 00000KT M06/M07 A3028 RMK A01 T10581067  RH  093%=      5-min Rain = 0
KEN1 071359Z 06001KT M06/M07 A3028 RMK A01 T10581067  RH  093%=      5-min Rain = 0
KEN1 071400Z 06002KT M06/M07 A3028 RMK A01 T10581067  RH  093%=      5-min Rain = 0
KEN1 071401Z 06002KT M06/M07 A3029 RMK A01 T10571067  RH  093%=      5-min Rain = 0
KEN1 071402Z 06002KT M06/M07 A3029 RMK A01 T10581067  RH  093%=      5-min Rain = 0
KEN1 071403Z 06002KT M06/M07 A3029 RMK A01 T10581067  RH  093%=      5-min Rain = 0
KEN1 071404Z 07002KT M06/M07 A3029 RMK A01 T10581067  RH  093%=      5-min Rain = 0
KEN1 071405Z 07002KT M06/M07 A3029 RMK A01 T10571067  RH  093%=      5-min Rain = 0
KEN1 071406Z 08002KT M06/M07 A303 RMK A01 T10571067  RH  093%=      5-min Rain = 0
KEN1 071407Z 10002KT M06/M07 A303 RMK A01 T10581067  RH  093%=      5-min Rain = 0
KEN1 071408Z 11002KT M06/M07 A303 RMK A01 T10571067  RH  093%=      5-min Rain = 0
KEN1 071409Z 12002KT M06/M07 A303 RMK A01 T10571066  RH  093%=      5-min Rain = 0
KEN1 071410Z 12002KT M06/M07 A303 RMK A01 T10571066  RH  093%=      5-min Rain = 0
KEN1 071411Z 13002KT M06/M07 A303 RMK A01 T10571066  RH  093%=      5-min Rain = 0
KEN1 071412Z 14003KT M06/M07 A303 RMK A01 T10561065  RH  093%=      5-min Rain = 0
KEN1 071413Z 14003KT M06/M07 A303 RMK A01 T10561065  RH  093%=      5-min Rain = 0
KEN1 071414Z 14003KT M06/M06 A303 RMK A01 T10551064  RH  094%=      5-min Rain = 0
KEN1 071415Z 14003KT M06/M06 A303 RMK A01 T10551063  RH  094%=      5-min Rain = 0
KEN1 071416Z 14003KT M05/M06 A303 RMK A01 T10541062  RH  094%=      5-min Rain = 0
KEN1 071417Z 14003KT M05/M06 A303 RMK A01 T10531062  RH  094%=      5-min Rain = 0
KEN1 071418Z 14004KT M05/M06 A303 RMK A01 T10531061  RH  094%=      5-min Rain = 0
KEN1 071419Z 14004KT M05/M06 A303 RMK A01 T10521061  RH  094%=      5-min Rain = 0
KEN1 071420Z 15004KT M05/M06 A303 RMK A01 T10521061  RH  094%=      5-min Rain = 0
KEN1 071421Z 15003KT M05/M06 A303 RMK A01 T10521061  RH  094%=      5-min Rain = 0
KEN1 071422Z 15003KT M05/M06 A303 RMK A01 T10521061  RH  093%=      5-min Rain = 0
KEN1 071423Z 15003KT M05/M06 A303 RMK A01 T10521061  RH  093%=      5-min Rain = 0
KEN1 071424Z 15003KT M05/M06 A303 RMK A01 T10521061  RH  093%=      5-min Rain = 0
KEN1 071425Z 15003KT M05/M06 A303 RMK A01 T10521062  RH  093%=      5-min Rain = 0
KEN1 071426Z 15003KT M05/M06 A303 RMK A01 T10521061  RH  093%=      5-min Rain = 0
KEN1 071427Z 16003KT M05/M06 A303 RMK A01 T10521062  RH  093%=      5-min Rain = 0
KEN1 071428Z 16003KT M05/M06 A303 RMK A01 T10521062  RH  093%=      5-min Rain = 0
KEN1 071429Z 15002KT M05/M06 A303 RMK A01 T10521062  RH  093%=      5-min Rain = 0
KEN1 071430Z 15002KT M05/M06 A303 RMK A01 T10521062  RH  093%=      5-min Rain = 0
KEN1 071431Z 15002KT M05/M06 A303 RMK A01 T10521061  RH  093%=      5-min Rain = 0
KEN1 071432Z 14003KT M05/M06 A303 RMK A01 T10511061  RH  093%=      5-min Rain = 0
KEN1 071433Z 14003KT M05/M06 A303 RMK A01 T10511060  RH  093%=      5-min Rain = 0
KEN1 071434Z 14004KT M05/M06 A3029 RMK A01 T10501060  RH  093%=      5-min Rain = 0
KEN1 071435Z 14004KT M05/M06 A3029 RMK A01 T10501059  RH  093%=      5-min Rain = 0
KEN1 071436Z 14004KT M05/M06 A3029 RMK A01 T10491059  RH  093%=      5-min Rain = 0
KEN1 071437Z 15004KT M05/M06 A303 RMK A01 T10491058  RH  093%=      5-min Rain = 0
KEN1 071438Z 15004KT M05/M06 A303 RMK A01 T10481058  RH  093%=      5-min Rain = 0
KEN1 071439Z 15003KT M05/M06 A303 RMK A01 T10481058  RH  093%=      5-min Rain = 0
KEN1 071440Z 15003KT M05/M06 A303 RMK A01 T10481058  RH  093%=      5-min Rain = 0
KEN1 071441Z 15003KT M05/M06 A303 RMK A01 T10481058  RH  093%=      5-min Rain = 0
KEN1 071442Z 15003KT M05/M06 A303 RMK A01 T10481058  RH  093%=      5-min Rain = 0
KEN1 071443Z 15003KT M05/M06 A3029 RMK A01 T10471058  RH  092%=      5-min Rain = 0
KEN1 071444Z 15003KT M05/M06 A3029 RMK A01 T10471058  RH  092%=      5-min Rain = 0
KEN1 071445Z 15004KT M05/M06 A303 RMK A01 T10471058  RH  092%=      5-min Rain = 0
KEN1 071446Z 15004KT M05/M06 A303 RMK A01 T10461057  RH  092%=      5-min Rain = 0
KEN1 071447Z 15004KT M05/M06 A303 RMK A01 T10461057  RH  092%=      5-min Rain = 0
KEN1 071448Z 15004KT M05/M06 A303 RMK A01 T10461057  RH  092%=      5-min Rain = 0
KEN1 071449Z 15004KT M05/M06 A303 RMK A01 T10461057  RH  092%=      5-min Rain = 0
KEN1 071450Z 15003KT M05/M06 A303 RMK A01 T10451056  RH  092%=      5-min Rain = 0
KEN1 071451Z 16004KT M05/M06 A303 RMK A01 T10451056  RH  092%=      5-min Rain = 0
KEN1 071452Z 15004KT M05/M06 A303 RMK A01 T10451056  RH  092%=      5-min Rain = 0
KEN1 071453Z 15004KT M05/M06 A303 RMK A01 T10451056  RH  092%=      5-min Rain = 0
KEN1 071454Z 15004KT M05/M06 A303 RMK A01 T10451056  RH  092%=      5-min Rain = 0
KEN1 071455Z 16003KT M04/M06 A303 RMK A01 T10441056  RH  092%=      5-min Rain = 0
KEN1 071456Z 16003KT M04/M06 A303 RMK A01 T10441055  RH  092%=      5-min Rain = 0
KEN1 071457Z 16003KT M04/M05 A303 RMK A01 T10431054  RH  092%=      5-min Rain = 0
KEN1 071458Z 17004KT M04/M05 A303 RMK A01 T10421053  RH  092%=      5-min Rain = 0
KEN1 071459Z 17004KT M04/M05 A303 RMK A01 T10411052  RH  092%=      5-min Rain = 0
KEN1 071500Z 17004KT M04/M05 A303 RMK A01 T10411052  RH  092%=      5-min Rain = 0
KEN1 071501Z 17004KT M04/M05 A303 RMK A01 T10411053  RH  092%=      5-min Rain = 0
KEN1 071502Z 18004KT M04/M05 A303 RMK A01 T10421054  RH  092%=      5-min Rain = 0
KEN1 071503Z 18004KT M04/M05 A303 RMK A01 T10411053  RH  092%=      5-min Rain = 0
KEN1 071504Z 18004KT M04/M05 A303 RMK A01 T10411053  RH  092%=      5-min Rain = 0
KEN1 071505Z 18004KT M04/M05 A303 RMK A01 T10411052  RH  092%=      5-min Rain = 0
KEN1 071506Z 18004KT M04/M05 A3031 RMK A01 T10411052  RH  091%=      5-min Rain = 0
KEN1 071507Z 18004KT M04/M05 A3031 RMK A01 T10401052  RH  092%=      5-min Rain = 0
KEN1 071508Z 18004KT M04/M05 A3031 RMK A01 T10401052  RH  092%=      5-min Rain = 0
KEN1 071509Z 18005KT M04/M05 A3031 RMK A01 T10391050  RH  092%=      5-min Rain = 0
KEN1 071510Z 18005KT M04/M05 A3031 RMK A01 T10371048  RH  092%=      5-min Rain = 0
KEN1 071511Z 18005KT M04/M05 A3031 RMK A01 T10371048  RH  092%=      5-min Rain = 0
KEN1 071512Z 17005KT M04/M05 A3031 RMK A01 T10381049  RH  092%=      5-min Rain = 0
KEN1 071513Z 17005KT M04/M05 A3031 RMK A01 T10371049  RH  092%=      5-min Rain = 0
KEN1 071514Z 17004KT M04/M05 A3031 RMK A01 T10371048  RH  092%=      5-min Rain = 0
KEN1 071515Z 18004KT M04/M05 A3031 RMK A01 T10361047  RH  092%=      5-min Rain = 0
KEN1 071516Z 18004KT M04/M05 A3031 RMK A01 T10361047  RH  092%=      5-min Rain = 0
KEN1 071517Z 18004KT M04/M05 A3031 RMK A01 T10351046  RH  092%=      5-min Rain = 0
KEN1 071518Z 18004KT M03/M05 A3031 RMK A01 T10341045  RH  092%=      5-min Rain = 0
KEN1 071519Z 19004KT M03/M05 A3031 RMK A01 T10341046  RH  092%=      5-min Rain = 0
KEN1 071520Z 18004KT M03/M05 A303 RMK A01 T10341046  RH  091%=      5-min Rain = 0
KEN1 071521Z 18003KT M03/M05 A303 RMK A01 T10341046  RH  091%=      5-min Rain = 0
KEN1 071522Z 18003KT M03/M05 A303 RMK A01 T10331045  RH  092%=      5-min Rain = 0
KEN1 071523Z 18003KT M03/M04 A3031 RMK A01 T10321044  RH  092%=      5-min Rain = 0
KEN1 071524Z 18003KT M03/M04 A3031 RMK A01 T10311042  RH  092%=      5-min Rain = 0
KEN1 071525Z 18004KT M03/M04 A3031 RMK A01 T10301041  RH  092%=      5-min Rain = 0
KEN1 071526Z 18004KT M03/M04 A3031 RMK A01 T10301041  RH  092%=      5-min Rain = 0
KEN1 071527Z 18004KT M03/M04 A3031 RMK A01 T10291041  RH  091%=      5-min Rain = 0
KEN1 071528Z 18004KT M03/M04 A3031 RMK A01 T10291042  RH  091%=      5-min Rain = 0
KEN1 071529Z 19004KT M03/M04 A3031 RMK A01 T10281042  RH  090%=      5-min Rain = 0
KEN1 071530Z 18004KT M03/M04 A3031 RMK A01 T10281041  RH  090%=      5-min Rain = 0
KEN1 071531Z 17004KT M03/M04 A3031 RMK A01 T10271040  RH  091%=      5-min Rain = 0
KEN1 071532Z 17004KT M03/M04 A3031 RMK A01 T10261040  RH  090%=      5-min Rain = 0
KEN1 071533Z 19003KT M03/M04 A3031 RMK A01 T10261040  RH  090%=      5-min Rain = 0
KEN1 071534Z 19004KT M03/M04 A3031 RMK A01 T10251039  RH  090%=      5-min Rain = 0
KEN1 071535Z 19004KT M03/M04 A3031 RMK A01 T10251038  RH  090%=      5-min Rain = 0
KEN1 071536Z 19004KT M02/M04 A3031 RMK A01 T10241038  RH  090%=      5-min Rain = 0
KEN1 071537Z 18004KT M02/M04 A3031 RMK A01 T10231037  RH  090%=      5-min Rain = 0
KEN1 071538Z 18005KT M02/M04 A3031 RMK A01 T10221036  RH  090%=      5-min Rain = 0
KEN1 071539Z 18004KT M02/M04 A3031 RMK A01 T10221036  RH  090%=      5-min Rain = 0
KEN1 071540Z 18004KT M02/M04 A3031 RMK A01 T10211036  RH  090%=      5-min Rain = 0
KEN1 071541Z 18005KT M02/M03 A3031 RMK A01 T10201034  RH  090%=      5-min Rain = 0
KEN1 071542Z 18004KT M02/M04 A3031 RMK A01 T10201035  RH  090%=      5-min Rain = 0
KEN1 071543Z 19004KT M02/M04 A3031 RMK A01 T10201035  RH  089%=      5-min Rain = 0
KEN1 071544Z 19004KT M02/M04 A3031 RMK A01 T10201035  RH  089%=      5-min Rain = 0
KEN1 071545Z 19004KT M02/M04 A3031 RMK A01 T10191035  RH  089%=      5-min Rain = 0
KEN1 071546Z 19004KT M02/M03 A3031 RMK A01 T10191034  RH  090%=      5-min Rain = 0
KEN1 071547Z 19005KT M02/M03 A3031 RMK A01 T10181033  RH  090%=      5-min Rain = 0
KEN1 071548Z 19005KT M02/M03 A3031 RMK A01 T10181032  RH  090%=      5-min Rain = 0
KEN1 071549Z 18006KT M02/M03 A3031 RMK A01 T10171033  RH  089%=      5-min Rain = 0
KEN1 071550Z 19005KT M02/M03 A3031 RMK A01 T10171031  RH  090%=      5-min Rain = 0
KEN1 071551Z 19006KT M02/M03 A3031 RMK A01 T10161030  RH  090%=      5-min Rain = 0
KEN1 071552Z 19006KT M02/M03 A3031 RMK A01 T10151029  RH  090%=      5-min Rain = 0
KEN1 071553Z 19005KT M02/M03 A3031 RMK A01 T10151029  RH  090%=      5-min Rain = 0
KEN1 071554Z 19006KT M01/M03 A3031 RMK A01 T10141028  RH  090%=      5-min Rain = 0
KEN1 071555Z 18005KT M01/M03 A3031 RMK A01 T10131028  RH  090%=      5-min Rain = 0
KEN1 071556Z 18007KT M01/M03 A3031 RMK A01 T10121027  RH  090%=      5-min Rain = 0
KEN1 071557Z 18007KT M01/M03 A3031 RMK A01 T10121027  RH  090%=      5-min Rain = 0
KEN1 071558Z 19007KT M01/M03 A3031 RMK A01 T10121027  RH  089%=      5-min Rain = 0
KEN1 071559Z 19006KT M01/M03 A3031 RMK A01 T10121027  RH  089%=      5-min Rain = 0
KEN1 071600Z 19007KT M01/M03 A3031 RMK A01 T10111027  RH  089%=      5-min Rain = 0
KEN1 071601Z 19006KT M01/M03 A3031 RMK A01 T10111027  RH  089%=      5-min Rain = 0
KEN1 071602Z 18007KT M01/M03 A3031 RMK A01 T10101027  RH  088%=      5-min Rain = 0
KEN1 071603Z 18006KT M01/M03 A3031 RMK A01 T10101027  RH  088%=      5-min Rain = 0
KEN1 071604Z 19006KT M01/M03 A3031 RMK A01 T10101027  RH  088%=      5-min Rain = 0
KEN1 071605Z 19005KT M01/M03 A3031 RMK A01 T10091026  RH  088%=      5-min Rain = 0
KEN1 071606Z 19006KT M01/M03 A3031 RMK A01 T10081025  RH  089%=      5-min Rain = 0
KEN1 071607Z 19007KT M01/M03 A3031 RMK A01 T10081025  RH  088%=      5-min Rain = 0
KEN1 071608Z 19007KT M01/M03 A3031 RMK A01 T10081027  RH  087%=      5-min Rain = 0
KEN1 071609Z 19007KT M01/M03 A3031 RMK A01 T10081027  RH  087%=      5-min Rain = 0
KEN1 071610Z 19006KT M01/M03 A3031 RMK A01 T10081028  RH  086%=      5-min Rain = 0
KEN1 071611Z 20006KT M01/M03 A3031 RMK A01 T10071028  RH  086%=      5-min Rain = 0
KEN1 071612Z 20006KT M01/M03 A3031 RMK A01 T10071028  RH  086%=      5-min Rain = 0
KEN1 071613Z 20006KT M01/M03 A3031 RMK A01 T10071027  RH  086%=      5-min Rain = 0
KEN1 071614Z 20005KT M01/M03 A3031 RMK A01 T10061026  RH  087%=      5-min Rain = 0
KEN1 071615Z 20007KT M01/M03 A3031 RMK A01 T10061025  RH  087%=      5-min Rain = 0
KEN1 071616Z 20007KT M01/M03 A3031 RMK A01 T10061026  RH  086%=      5-min Rain = 0
KEN1 071617Z 19006KT M01/M03 A3031 RMK A01 T10061027  RH  086%=      5-min Rain = 0
KEN1 071618Z 19006KT M01/M03 A3031 RMK A01 T10061027  RH  085%=      5-min Rain = 0
KEN1 071619Z 19006KT M01/M03 A3031 RMK A01 T10051027  RH  085%=      5-min Rain = 0
KEN1 071620Z 19005KT M01/M03 A3031 RMK A01 T10051027  RH  085%=      5-min Rain = 0
KEN1 071621Z 19005KT M00/M02 A3031 RMK A01 T10041024  RH  086%=      5-min Rain = 0
KEN1 071622Z 20005KT M00/M02 A3031 RMK A01 T10031023  RH  087%=      5-min Rain = 0
KEN1 071623Z 19005KT M00/M02 A303 RMK A01 T10021023  RH  086%=      5-min Rain = 0
KEN1 071624Z 17005KT M00/M03 A303 RMK A01 T10031025  RH  085%=      5-min Rain = 0
KEN1 071625Z 17005KT M00/M03 A303 RMK A01 T10021025  RH  085%=      5-min Rain = 0
KEN1 071626Z 17005KT M00/M03 A303 RMK A01 T10031026  RH  084%=      5-min Rain = 0
KEN1 071627Z 17003KT M00/M03 A3031 RMK A01 T10021026  RH  084%=      5-min Rain = 0
KEN1 071628Z 16005KT M00/M02 A3031 RMK A01 T10021023  RH  086%=      5-min Rain = 0
KEN1 071629Z 16006KT M00/M03 A303 RMK A01 T10011025  RH  084%=      5-min Rain = 0
KEN1 071630Z 17004KT M00/M03 A303 RMK A01 T10011026  RH  083%=      5-min Rain = 0
KEN1 071631Z 18003KT M00/M03 A303 RMK A01 T10021027  RH  083%=      5-min Rain = 0
KEN1 071632Z 21003KT M00/M03 A303 RMK A01 T10021027  RH  083%=      5-min Rain = 0
KEN1 071633Z 21003KT M00/M03 A303 RMK A01 T10021027  RH  083%=      5-min Rain = 0
KEN1 071634Z 21004KT M00/M03 A303 RMK A01 T10021026  RH  084%=      5-min Rain = 0
KEN1 071635Z 20004KT M00/M03 A303 RMK A01 T10011025  RH  084%=      5-min Rain = 0
KEN1 071636Z 22003KT M00/M03 A303 RMK A01 T10011026  RH  083%=      5-min Rain = 0
KEN1 071637Z 22004KT M00/M03 A303 RMK A01 T10011026  RH  083%=      5-min Rain = 0
KEN1 071638Z 21005KT M00/M03 A303 RMK A01 T10011026  RH  083%=      5-min Rain = 0
KEN1 071639Z 20005KT 00/03 A303 RMK A01 T00-00-26  RH  083%=      5-min Rain = 0
KEN1 071640Z 20004KT 00/03 A303 RMK A01 T00-00-26  RH  083%=      5-min Rain = 0
KEN1 071641Z 21003KT 00/03 A303 RMK A01 T00000-26  RH  083%=      5-min Rain = 0
KEN1 071642Z 22003KT 00/M03 A303 RMK A01 T00011025  RH  083%=      5-min Rain = 0
KEN1 071643Z 22003KT 00/M03 A303 RMK A01 T00011026  RH  082%=      5-min Rain = 0
KEN1 071644Z 24003KT 00/M03 A303 RMK A01 T00011027  RH  081%=      5-min Rain = 0
KEN1 071645Z 24004KT 00/M03 A303 RMK A01 T00011027  RH  082%=      5-min Rain = 0
KEN1 071646Z 24004KT 00/03 A303 RMK A01 T00000-27  RH  082%=      5-min Rain = 0
KEN1 071647Z 24002KT 00/M03 A303 RMK A01 T00011027  RH  082%=      5-min Rain = 0
KEN1 071648Z 25003KT 00/M03 A303 RMK A01 T00011027  RH  082%=      5-min Rain = 0
KEN1 071649Z 24003KT 00/M03 A303 RMK A01 T00011027  RH  082%=      5-min Rain = 0
KEN1 071650Z 24002KT 00/M03 A303 RMK A01 T00011027  RH  082%=      5-min Rain = 0
KEN1 071651Z 26001KT 00/M03 A303 RMK A01 T00011027  RH  082%=      5-min Rain = 0
KEN1 071652Z 26001KT 00/M03 A303 RMK A01 T00011027  RH  082%=      5-min Rain = 0
KEN1 071653Z 27000KT 00/M03 A303 RMK A01 T00011027  RH  082%=      5-min Rain = 0
KEN1 071654Z 00000KT 00/M03 A303 RMK A01 T00011027  RH  081%=      5-min Rain = 0
KEN1 071655Z 22000KT 00/M03 A303 RMK A01 T00021027  RH  081%=      5-min Rain = 0
KEN1 071656Z 18001KT 00/M03 A303 RMK A01 T00031026  RH  081%=      5-min Rain = 0
KEN1 071657Z 18001KT 00/M03 A303 RMK A01 T00031026  RH  081%=      5-min Rain = 0
KEN1 071658Z 23001KT 00/M03 A303 RMK A01 T00041025  RH  081%=      5-min Rain = 0
KEN1 071659Z 24002KT 00/M03 A303 RMK A01 T00041026  RH  080%=      5-min Rain = 0
KEN1 071700Z 27002KT 00/M03 A303 RMK A01 T00041027  RH  079%=      5-min Rain = 0
KEN1 071701Z 27003KT 00/M03 A303 RMK A01 T00041027  RH  079%=      5-min Rain = 0
KEN1 071702Z 27003KT 00/M03 A3029 RMK A01 T00041028  RH  079%=      5-min Rain = 0
KEN1 071703Z 27003KT 00/M03 A3029 RMK A01 T00041029  RH  078%=      5-min Rain = 0
KEN1 071704Z 27003KT 01/M03 A3029 RMK A01 T00051028  RH  079%=      5-min Rain = 0
KEN1 071705Z 27003KT 01/M03 A3029 RMK A01 T00051028  RH  078%=      5-min Rain = 0
KEN1 071706Z 29003KT 01/M03 A3029 RMK A01 T00051028  RH  079%=      5-min Rain = 0
KEN1 071707Z 29002KT 01/M03 A3029 RMK A01 T00051027  RH  079%=      5-min Rain = 0
KEN1 071708Z 32002KT 01/M03 A3029 RMK A01 T00071025  RH  079%=      5-min Rain = 0
KEN1 071709Z 33002KT 01/M03 A3029 RMK A01 T00071026  RH  078%=      5-min Rain = 0
KEN1 071710Z 32001KT 01/M03 A3029 RMK A01 T00071027  RH  077%=      5-min Rain = 0
KEN1 071711Z 27001KT 01/M03 A3029 RMK A01 T00081027  RH  078%=      5-min Rain = 0
KEN1 071712Z 26001KT 01/M03 A3029 RMK A01 T00101025  RH  078%=      5-min Rain = 0
KEN1 071713Z 27000KT 01/M03 A3029 RMK A01 T00111025  RH  077%=      5-min Rain = 0
KEN1 071714Z 36001KT 01/M03 A3029 RMK A01 T00121026  RH  076%=      5-min Rain = 0
KEN1 071715Z 36002KT 01/M03 A3029 RMK A01 T00131026  RH  076%=      5-min Rain = 0
KEN1 071716Z 35002KT 01/M03 A3029 RMK A01 T00121026  RH  076%=      5-min Rain = 0
KEN1 071717Z 00001KT 01/M03 A3029 RMK A01 T00121027  RH  075%=      5-min Rain = 0
KEN1 071718Z 30001KT 01/M03 A3029 RMK A01 T00111027  RH  076%=      5-min Rain = 0
KEN1 071719Z 29002KT 01/M03 A3029 RMK A01 T00121026  RH  076%=      5-min Rain = 0
KEN1 071720Z 31001KT 01/M03 A3029 RMK A01 T00121025  RH  076%=      5-min Rain = 0
KEN1 071721Z 30001KT 01/M03 A3029 RMK A01 T00121026  RH  076%=      5-min Rain = 0
KEN1 071722Z 28001KT 01/M03 A3029 RMK A01 T00131026  RH  075%=      5-min Rain = 0
KEN1 071723Z 30002KT 01/M03 A3029 RMK A01 T00131026  RH  075%=      5-min Rain = 0
KEN1 071724Z 34002KT 01/M03 A3029 RMK A01 T00121027  RH  075%=      5-min Rain = 0
KEN1 071725Z 33002KT 01/M03 A3029 RMK A01 T00121027  RH  075%=      5-min Rain = 0
KEN1 071726Z 35001KT 01/M03 A3029 RMK A01 T00121027  RH  076%=      5-min Rain = 0
KEN1 071727Z 35001KT 01/M03 A3029 RMK A01 T00131026  RH  075%=      5-min Rain = 0
KEN1 071728Z 34001KT 01/M03 A3029 RMK A01 T00131027  RH  074%=      5-min Rain = 0
KEN1 071729Z 00000KT 01/M03 A3028 RMK A01 T00131029  RH  074%=      5-min Rain = 0
KEN1 071730Z 29000KT 01/M03 A3028 RMK A01 T00131029  RH  074%=      5-min Rain = 0
KEN1 071731Z 31001KT 01/M03 A3028 RMK A01 T00141028  RH  074%=      5-min Rain = 0
KEN1 071732Z 34001KT 01/M03 A3028 RMK A01 T00141028  RH  074%=      5-min Rain = 0
KEN1 071733Z 30003KT 01/M03 A3028 RMK A01 T00141027  RH  074%=      5-min Rain = 0
KEN1 071734Z 29003KT 02/M03 A3028 RMK A01 T00151025  RH  075%=      5-min Rain = 0
KEN1 071735Z 28002KT 02/M03 A3028 RMK A01 T00151025  RH  075%=      5-min Rain = 0
KEN1 071736Z 29002KT 02/M03 A3028 RMK A01 T00151027  RH  074%=      5-min Rain = 0
KEN1 071737Z 34002KT 01/M03 A3028 RMK A01 T00141026  RH  075%=      5-min Rain = 0
KEN1 071738Z 32002KT 01/M03 A3028 RMK A01 T00141025  RH  075%=      5-min Rain = 0
KEN1 071739Z 32001KT 01/M03 A3028 RMK A01 T00141026  RH  074%=      5-min Rain = 0
KEN1 071740Z 32002KT 01/M03 A3028 RMK A01 T00141027  RH  074%=      5-min Rain = 0
KEN1 071741Z 30003KT 02/M03 A3028 RMK A01 T00151026  RH  074%=      5-min Rain = 0
KEN1 071742Z 30003KT 02/M03 A3028 RMK A01 T00161026  RH  074%=      5-min Rain = 0
KEN1 071743Z 29002KT 02/M03 A3028 RMK A01 T00151028  RH  073%=      5-min Rain = 0
KEN1 071744Z 28002KT 02/M03 A3028 RMK A01 T00151028  RH  073%=      5-min Rain = 0
KEN1 071745Z 29001KT 02/M03 A3028 RMK A01 T00151028  RH  073%=      5-min Rain = 0
KEN1 071746Z 25001KT 02/M03 A3028 RMK A01 T00151028  RH  073%=      5-min Rain = 0
KEN1 071747Z 22001KT 02/M03 A3028 RMK A01 T00151029  RH  073%=      5-min Rain = 0
KEN1 071748Z 23002KT 02/M03 A3028 RMK A01 T00151029  RH  073%=      5-min Rain = 0
KEN1 071749Z 22002KT 02/M03 A3028 RMK A01 T00161029  RH  072%=      5-min Rain = 0
KEN1 071750Z 26001KT 02/M03 A3028 RMK A01 T00161029  RH  072%=      5-min Rain = 0
KEN1 071751Z 32001KT 02/M03 A3028 RMK A01 T00151029  RH  072%=      5-min Rain = 0
KEN1 071752Z 31001KT 02/M03 A3028 RMK A01 T00161028  RH  072%=      5-min Rain = 0
KEN1 071753Z 32001KT 02/M03 A3028 RMK A01 T00161029  RH  072%=      5-min Rain = 0
KEN1 071754Z 01001KT 02/M03 A3028 RMK A01 T00171029  RH  072%=      5-min Rain = 0
KEN1 071755Z 36001KT 02/M03 A3028 RMK A01 T00171029  RH  071%=      5-min Rain = 0
KEN1 071756Z 34000KT 02/M03 A3028 RMK A01 T00171030  RH  071%=      5-min Rain = 0
KEN1 071757Z 34001KT 02/M03 A3028 RMK A01 T00171029  RH  071%=      5-min Rain = 0
KEN1 071758Z 31002KT 02/M03 A3028 RMK A01 T00181029  RH  071%=      5-min Rain = 0
KEN1 071759Z 30002KT 02/M03 A3028 RMK A01 T00181029  RH  071%=      5-min Rain = 0
KEN1 071800Z 35002KT 02/M03 A3028 RMK A01 T00181029  RH  071%=      5-min Rain = 0
KEN1 071801Z 01001KT 02/M03 A3028 RMK A01 T00191028  RH  071%=      5-min Rain = 0
KEN1 071802Z 31000KT 02/M03 A3027 RMK A01 T00191028  RH  071%=      5-min Rain = 0
KEN1 071803Z 34002KT 02/M03 A3027 RMK A01 T00211027  RH  071%=      5-min Rain = 0
KEN1 071804Z 33003KT 02/M03 A3027 RMK A01 T00211028  RH  070%=      5-min Rain = 0
KEN1 071805Z 34004KT 02/M03 A3027 RMK A01 T00211028  RH  070%=      5-min Rain = 0
KEN1 071806Z 35003KT 02/M03 A3027 RMK A01 T00211028  RH  070%=      5-min Rain = 0
KEN1 071807Z 32002KT 02/M03 A3027 RMK A01 T00201028  RH  070%=      5-min Rain = 0
KEN1 071808Z 33002KT 02/M03 A3027 RMK A01 T00201029  RH  070%=      5-min Rain = 0
KEN1 071809Z 34002KT 02/M03 A3027 RMK A01 T00191028  RH  071%=      5-min Rain = 0
KEN1 071810Z 34003KT 02/M03 A3027 RMK A01 T00201027  RH  071%=      5-min Rain = 0
KEN1 071811Z 35004KT 02/M03 A3027 RMK A01 T00211027  RH  070%=      5-min Rain = 0
KEN1 071812Z 01003KT 02/M03 A3027 RMK A01 T00221026  RH  071%=      5-min Rain = 0
KEN1 071813Z 02003KT 02/M03 A3027 RMK A01 T00231026  RH  070%=      5-min Rain = 0
KEN1 071814Z 02002KT 02/M03 A3027 RMK A01 T00231026  RH  070%=      5-min Rain = 0
KEN1 071815Z 01003KT 02/M03 A3027 RMK A01 T00241026  RH  070%=      5-min Rain = 0
KEN1 071816Z 01003KT 02/M03 A3027 RMK A01 T00241027  RH  069%=      5-min Rain = 0
KEN1 071817Z 03003KT 02/M03 A3027 RMK A01 T00231028  RH  069%=      5-min Rain = 0
KEN1 071818Z 00005KT 02/M03 A3027 RMK A01 T00231026  RH  070%=      5-min Rain = 0
KEN1 071819Z 00005KT 02/M03 A3027 RMK A01 T00231027  RH  070%=      5-min Rain = 0
KEN1 071820Z 00005KT 02/M03 A3027 RMK A01 T00231027  RH  069%=      5-min Rain = 0
KEN1 071821Z 02004KT 02/M03 A3027 RMK A01 T00221027  RH  070%=      5-min Rain = 0
KEN1 071822Z 35004KT 02/M03 A3027 RMK A01 T00221027  RH  070%=      5-min Rain = 0
KEN1 071823Z 02004KT 02/M03 A3027 RMK A01 T00221027  RH  070%=      5-min Rain = 0
KEN1 071824Z 01004KT 02/M03 A3027 RMK A01 T00231027  RH  070%=      5-min Rain = 0
KEN1 071825Z 35005KT 02/M03 A3027 RMK A01 T00231026  RH  070%=      5-min Rain = 0
KEN1 071826Z 36005KT 02/M03 A3027 RMK A01 T00231027  RH  070%=      5-min Rain = 0
KEN1 071827Z 00006KT 02/M03 A3027 RMK A01 T00231026  RH  070%=      5-min Rain = 0
KEN1 071828Z 36004KT 02/M03 A3026 RMK A01 T00221028  RH  069%=      5-min Rain = 0
KEN1 071829Z 34004KT 02/M03 A3026 RMK A01 T00211029  RH  070%=      5-min Rain = 0
KEN1 071830Z 34004KT 02/M03 A3026 RMK A01 T00211028  RH  070%=      5-min Rain = 0
KEN1 071831Z 33004KT 02/M03 A3026 RMK A01 T00211027  RH  070%=      5-min Rain = 0
KEN1 071832Z 00004KT 02/M03 A3026 RMK A01 T00221027  RH  070%=      5-min Rain = 0
KEN1 071833Z 02003KT 02/M03 A3026 RMK A01 T00231026  RH  070%=      5-min Rain = 0
KEN1 071834Z 00005KT 02/M03 A3026 RMK A01 T00241027  RH  069%=      5-min Rain = 0
KEN1 071835Z 01005KT 02/M03 A3026 RMK A01 T00241027  RH  069%=      5-min Rain = 0
KEN1 071836Z 35005KT 02/M03 A3026 RMK A01 T00241027  RH  069%=      5-min Rain = 0
KEN1 071837Z 01005KT 03/M03 A3026 RMK A01 T00251025  RH  069%=      5-min Rain = 0
KEN1 071838Z 02005KT 03/M03 A3026 RMK A01 T00261027  RH  068%=      5-min Rain = 0
KEN1 071839Z 02004KT 02/M03 A3026 RMK A01 T00241028  RH  068%=      5-min Rain = 0
KEN1 071840Z 02004KT 02/M03 A3026 RMK A01 T00241028  RH  069%=      5-min Rain = 0
KEN1 071841Z 01005KT 02/M03 A3026 RMK A01 T00231028  RH  069%=      5-min Rain = 0
KEN1 071842Z 36004KT 02/M03 A3026 RMK A01 T00221029  RH  069%=      5-min Rain = 0
KEN1 071843Z 01004KT 02/M03 A3026 RMK A01 T00221028  RH  069%=      5-min Rain = 0
KEN1 071844Z 01006KT 02/M03 A3026 RMK A01 T00221028  RH  069%=      5-min Rain = 0
KEN1 071845Z 01006KT 02/M03 A3026 RMK A01 T00231028  RH  069%=      5-min Rain = 0
KEN1 071846Z 01005KT 02/M03 A3026 RMK A01 T00241028  RH  069%=      5-min Rain = 0
KEN1 071847Z 02005KT 03/M03 A3026 RMK A01 T00251027  RH  068%=      5-min Rain = 0
KEN1 071848Z 02004KT 03/M03 A3026 RMK A01 T00271027  RH  067%=      5-min Rain = 0
KEN1 071849Z 35005KT 03/M03 A3025 RMK A01 T00271027  RH  067%=      5-min Rain = 0
KEN1 071850Z 34005KT 03/M03 A3025 RMK A01 T00291027  RH  066%=      5-min Rain = 0
KEN1 071851Z 35005KT 03/M03 A3025 RMK A01 T00271031  RH  066%=      5-min Rain = 0
KEN1 071852Z 34005KT 03/M03 A3025 RMK A01 T00261031  RH  066%=      5-min Rain = 0
KEN1 071853Z 02005KT 03/M03 A3025 RMK A01 T00261031  RH  066%=      5-min Rain = 0
KEN1 071854Z 02005KT 03/M03 A3025 RMK A01 T00271031  RH  066%=      5-min Rain = 0
KEN1 071855Z 05004KT 03/M03 A3025 RMK A01 T00271032  RH  065%=      5-min Rain = 0
KEN1 071856Z 04005KT 03/M03 A3025 RMK A01 T00271032  RH  065%=      5-min Rain = 0
KEN1 071857Z 04006KT 03/M03 A3025 RMK A01 T00281031  RH  065%=      5-min Rain = 0
KEN1 071858Z 04006KT 03/M03 A3025 RMK A01 T00291031  RH  065%=      5-min Rain = 0
KEN1 071859Z 02005KT 03/M03 A3025 RMK A01 T00291032  RH  064%=      5-min Rain = 0
KEN1 071900Z 04005KT 03/M03 A3025 RMK A01 T00271033  RH  064%=      5-min Rain = 0
KEN1 071901Z 04004KT 03/M03 A3025 RMK A01 T00271033  RH  065%=      5-min Rain = 0
KEN1 071902Z 03004KT 03/M03 A3025 RMK A01 T00271032  RH  065%=      5-min Rain = 0
KEN1 071903Z 34005KT 03/M03 A3025 RMK A01 T00301030  RH  065%=      5-min Rain = 0
KEN1 071904Z 35006KT 03/M03 A3025 RMK A01 T00301030  RH  064%=      5-min Rain = 0
KEN1 071905Z 36005KT 03/M03 A3025 RMK A01 T00301031  RH  064%=      5-min Rain = 0
KEN1 071906Z 01007KT 03/M03 A3025 RMK A01 T00301032  RH  064%=      5-min Rain = 0
KEN1 071907Z 02006KT 03/M03 A3025 RMK A01 T00291033  RH  064%=      5-min Rain = 0
KEN1 071908Z 02006KT 03/M03 A3025 RMK A01 T00281033  RH  064%=      5-min Rain = 0
KEN1 071909Z 03006KT 03/M03 A3025 RMK A01 T00281033  RH  064%=      5-min Rain = 0
KEN1 071910Z 03006KT 03/M03 A3025 RMK A01 T00281033  RH  064%=      5-min Rain = 0
KEN1 071911Z 02005KT 03/M03 A3025 RMK A01 T00281033  RH  064%=      5-min Rain = 0
KEN1 071912Z 04007KT 03/M03 A3025 RMK A01 T00281033  RH  064%=      5-min Rain = 0
KEN1 071913Z 05005KT 03/M03 A3025 RMK A01 T00281032  RH  064%=      5-min Rain = 0
KEN1 071914Z 03006KT 03/M03 A3025 RMK A01 T00291031  RH  065%=      5-min Rain = 0
KEN1 071915Z 03006KT 03/M03 A3024 RMK A01 T00301032  RH  064%=      5-min Rain = 0
KEN1 071916Z 03005KT 03/M03 A3024 RMK A01 T00311032  RH  063%=      5-min Rain = 0
KEN1 071917Z 04004KT 03/M03 A3024 RMK A01 T00301033  RH  063%=      5-min Rain = 0
KEN1 071918Z 04006KT 03/M03 A3024 RMK A01 T00301032  RH  064%=      5-min Rain = 0
KEN1 071919Z 04006KT 03/M03 A3024 RMK A01 T00301032  RH  064%=      5-min Rain = 0
KEN1 071920Z 05006KT 03/M03 A3024 RMK A01 T00301033  RH  063%=      5-min Rain = 0
KEN1 071921Z 07004KT 03/M04 A3024 RMK A01 T00291035  RH  063%=      5-min Rain = 0
KEN1 071922Z 05005KT 03/M03 A3024 RMK A01 T00281034  RH  064%=      5-min Rain = 0
KEN1 071923Z 04005KT 03/M03 A3024 RMK A01 T00291033  RH  064%=      5-min Rain = 0
KEN1 071924Z 03005KT 03/M03 A3025 RMK A01 T00301033  RH  063%=      5-min Rain = 0
KEN1 071925Z 02003KT 03/M04 A3025 RMK A01 T00301035  RH  062%=      5-min Rain = 0
KEN1 071926Z 03002KT 03/M04 A3025 RMK A01 T00281037  RH  062%=      5-min Rain = 0
KEN1 071927Z 06005KT 03/M04 A3025 RMK A01 T00291035  RH  063%=      5-min Rain = 0
KEN1 071928Z 04004KT 03/M03 A3025 RMK A01 T00301033  RH  064%=      5-min Rain = 0
KEN1 071929Z 05004KT 03/M03 A3025 RMK A01 T00311033  RH  063%=      5-min Rain = 0
KEN1 071930Z 07003KT 03/M04 A3025 RMK A01 T00311035  RH  062%=      5-min Rain = 0
KEN1 071931Z 04004KT 03/M04 A3025 RMK A01 T00311035  RH  062%=      5-min Rain = 0
KEN1 071932Z 04003KT 03/M04 A3025 RMK A01 T00301035  RH  062%=      5-min Rain = 0
KEN1 071933Z 03004KT 03/M03 A3025 RMK A01 T00311034  RH  062%=      5-min Rain = 0
KEN1 071934Z 02004KT 03/M04 A3025 RMK A01 T00311036  RH  062%=      5-min Rain = 0
KEN1 071935Z 01004KT 03/M04 A3025 RMK A01 T00311036  RH  061%=      5-min Rain = 0
KEN1 071936Z 04002KT 03/M04 A3025 RMK A01 T00311036  RH  062%=      5-min Rain = 0
KEN1 071937Z 04005KT 03/M03 A3025 RMK A01 T00311033  RH  063%=      5-min Rain = 0
KEN1 071938Z 05004KT 03/M03 A3025 RMK A01 T00311034  RH  062%=      5-min Rain = 0
KEN1 071939Z 03004KT 03/M03 A3025 RMK A01 T00311034  RH  062%=      5-min Rain = 0
KEN1 071940Z 03003KT 03/M03 A3025 RMK A01 T00321034  RH  062%=      5-min Rain = 0
KEN1 071941Z 03004KT 03/M03 A3025 RMK A01 T00311034  RH  062%=      5-min Rain = 0
KEN1 071942Z 04005KT 03/M03 A3025 RMK A01 T00321034  RH  062%=      5-min Rain = 0
KEN1 071943Z 03005KT 03/M03 A3025 RMK A01 T00321034  RH  062%=      5-min Rain = 0
KEN1 071944Z 04006KT 03/M03 A3025 RMK A01 T00321034  RH  062%=      5-min Rain = 0
KEN1 071945Z 05005KT 03/M03 A3025 RMK A01 T00321034  RH  062%=      5-min Rain = 0
KEN1 071946Z 06004KT 03/M04 A3025 RMK A01 T00311035  RH  062%=      5-min Rain = 0
KEN1 071947Z 03003KT 03/M03 A3025 RMK A01 T00311033  RH  062%=      5-min Rain = 0
KEN1 071948Z 02002KT 03/M04 A3025 RMK A01 T00321035  RH  061%=      5-min Rain = 0
KEN1 071949Z 02002KT 03/M04 A3025 RMK A01 T00311036  RH  061%=      5-min Rain = 0
KEN1 071950Z 05003KT 03/M04 A3025 RMK A01 T00311035  RH  062%=      5-min Rain = 0
KEN1 071951Z 06003KT 03/M03 A3025 RMK A01 T00311034  RH  062%=      5-min Rain = 0
KEN1 071952Z 05004KT 03/M03 A3025 RMK A01 T00321033  RH  062%=      5-min Rain = 0
KEN1 071953Z 03004KT 03/M03 A3025 RMK A01 T00341033  RH  062%=      5-min Rain = 0
KEN1 071954Z 04005KT 03/M04 A3025 RMK A01 T00331035  RH  061%=      5-min Rain = 0
KEN1 071955Z 03006KT 03/M04 A3025 RMK A01 T00321035  RH  061%=      5-min Rain = 0
KEN1 071956Z 03005KT 03/M04 A3025 RMK A01 T00311035  RH  062%=      5-min Rain = 0
KEN1 071957Z 03004KT 03/M04 A3025 RMK A01 T00311036  RH  062%=      5-min Rain = 0
KEN1 071958Z 02004KT 03/M04 A3025 RMK A01 T00301036  RH  062%=      5-min Rain = 0
KEN1 071959Z 03003KT 03/M04 A3025 RMK A01 T00301036  RH  061%=      5-min Rain = 0
KEN1 072000Z 03002KT 03/M04 A3025 RMK A01 T00301036  RH  061%=      5-min Rain = 0
KEN1 072001Z 05004KT 03/M04 A3025 RMK A01 T00301036  RH  062%=      5-min Rain = 0
KEN1 072002Z 06005KT 03/M04 A3025 RMK A01 T00311036  RH  062%=      5-min Rain = 0
KEN1 072003Z 07004KT 03/M04 A3025 RMK A01 T00311036  RH  061%=      5-min Rain = 0
KEN1 072004Z 07003KT 03/M04 A3025 RMK A01 T00311037  RH  061%=      5-min Rain = 0
KEN1 072005Z 04003KT 03/M04 A3025 RMK A01 T00311038  RH  061%=      5-min Rain = 0
KEN1 072006Z 03004KT 03/M04 A3025 RMK A01 T00311037  RH  061%=      5-min Rain = 0
KEN1 072007Z 05004KT 03/M04 A3025 RMK A01 T00311038  RH  061%=      5-min Rain = 0
KEN1 072008Z 04004KT 03/M04 A3025 RMK A01 T00321038  RH  060%=      5-min Rain = 0
KEN1 072009Z 04003KT 03/M04 A3025 RMK A01 T00321038  RH  060%=      5-min Rain = 0
KEN1 072010Z 05004KT 03/M04 A3025 RMK A01 T00321038  RH  060%=      5-min Rain = 0
KEN1 072011Z 06003KT 03/M04 A3025 RMK A01 T00321038  RH  060%=      5-min Rain = 0
KEN1 072012Z 05004KT 03/M04 A3025 RMK A01 T00331037  RH  060%=      5-min Rain = 0
KEN1 072013Z 04006KT 03/M04 A3024 RMK A01 T00341036  RH  060%=      5-min Rain = 0
KEN1 072014Z 06005KT 03/M04 A3024 RMK A01 T00341036  RH  060%=      5-min Rain = 0
KEN1 072015Z 05004KT 04/M04 A3024 RMK A01 T00351035  RH  060%=      5-min Rain = 0
KEN1 072016Z 05004KT 04/M04 A3024 RMK A01 T00361036  RH  060%=      5-min Rain = 0
KEN1 072017Z 04003KT 04/M04 A3024 RMK A01 T00361036  RH  059%=      5-min Rain = 0
KEN1 072018Z 03003KT 04/M04 A3024 RMK A01 T00351037  RH  059%=      5-min Rain = 0
KEN1 072019Z 03004KT 03/M04 A3024 RMK A01 T00341038  RH  059%=      5-min Rain = 0
KEN1 072020Z 02005KT 03/M04 A3024 RMK A01 T00341038  RH  059%=      5-min Rain = 0
KEN1 072021Z 03005KT 03/M04 A3025 RMK A01 T00341037  RH  060%=      5-min Rain = 0
KEN1 072022Z 02006KT 04/M04 A3025 RMK A01 T00351036  RH  060%=      5-min Rain = 0
KEN1 072023Z 01006KT 03/M04 A3025 RMK A01 T00341036  RH  060%=      5-min Rain = 0
KEN1 072024Z 01005KT 03/M04 A3025 RMK A01 T00341037  RH  060%=      5-min Rain = 0
KEN1 072025Z 00004KT 03/M04 A3025 RMK A01 T00331036  RH  060%=      5-min Rain = 0
KEN1 072026Z 01004KT 03/M04 A3025 RMK A01 T00331036  RH  060%=      5-min Rain = 0
KEN1 072027Z 00004KT 03/M04 A3025 RMK A01 T00331037  RH  060%=      5-min Rain = 0
KEN1 072028Z 01004KT 03/M04 A3025 RMK A01 T00331037  RH  060%=      5-min Rain = 0
KEN1 072029Z 02004KT 03/M04 A3025 RMK A01 T00331038  RH  060%=      5-min Rain = 0
KEN1 072030Z 03004KT 03/M04 A3025 RMK A01 T00341037  RH  060%=      5-min Rain = 0
KEN1 072031Z 03005KT 03/M04 A3025 RMK A01 T00341038  RH  059%=      5-min Rain = 0
KEN1 072032Z 03005KT 03/M04 A3025 RMK A01 T00341039  RH  059%=      5-min Rain = 0
KEN1 072033Z 03004KT 03/M04 A3025 RMK A01 T00341038  RH  059%=      5-min Rain = 0
KEN1 072034Z 02005KT 03/M04 A3025 RMK A01 T00341038  RH  059%=      5-min Rain = 0
KEN1 072035Z 03005KT 03/M04 A3025 RMK A01 T00341037  RH  059%=      5-min Rain = 0
KEN1 072036Z 04005KT 04/M04 A3025 RMK A01 T00351037  RH  059%=      5-min Rain = 0
KEN1 072037Z 01004KT 03/M04 A3025 RMK A01 T00341038  RH  059%=      5-min Rain = 0
KEN1 072038Z 03003KT 04/M04 A3025 RMK A01 T00351037  RH  059%=      5-min Rain = 0
KEN1 072039Z 03005KT 04/M04 A3025 RMK A01 T00361036  RH  059%=      5-min Rain = 0
KEN1 072040Z 04005KT 04/M04 A3025 RMK A01 T00371037  RH  059%=      5-min Rain = 0
KEN1 072041Z 04005KT 04/M04 A3025 RMK A01 T00361037  RH  059%=      5-min Rain = 0
KEN1 072042Z 04007KT 04/M04 A3024 RMK A01 T00351035  RH  060%=      5-min Rain = 0
KEN1 072043Z 04008KT 04/M04 A3024 RMK A01 T00361035  RH  060%=      5-min Rain = 0
KEN1 072044Z 02008KT 04/M04 A3024 RMK A01 T00361035  RH  060%=      5-min Rain = 0
KEN1 072045Z 02007KT 04/M04 A3024 RMK A01 T00361035  RH  060%=      5-min Rain = 0
KEN1 072046Z 01006KT 04/M04 A3024 RMK A01 T00351035  RH  060%=      5-min Rain = 0
KEN1 072047Z 02008KT 04/M03 A3024 RMK A01 T00351034  RH  061%=      5-min Rain = 0
KEN1 072048Z 00007KT 04/M03 A3024 RMK A01 T00351034  RH  061%=      5-min Rain = 0
KEN1 072049Z 00008KT 04/M03 A3024 RMK A01 T00351034  RH  061%=      5-min Rain = 0
KEN1 072050Z 01007KT 04/M03 A3024 RMK A01 T00351034  RH  061%=      5-min Rain = 0
KEN1 072051Z 02007KT 04/M03 A3024 RMK A01 T00351034  RH  061%=      5-min Rain = 0
KEN1 072052Z 04007KT 04/M03 A3024 RMK A01 T00351034  RH  061%=      5-min Rain = 0
KEN1 072053Z 04006KT 04/M04 A3024 RMK A01 T00351035  RH  060%=      5-min Rain = 0
KEN1 072054Z 03005KT 03/M03 A3024 RMK A01 T00341034  RH  061%=      5-min Rain = 0
KEN1 072055Z 03007KT 04/M04 A3024 RMK A01 T00351035  RH  061%=      5-min Rain = 0
KEN1 072056Z 03008KT 04/M03 A3024 RMK A01 T00351034  RH  060%=      5-min Rain = 0
KEN1 072057Z 03007KT 04/M04 A3024 RMK A01 T00351035  RH  060%=      5-min Rain = 0
KEN1 072058Z 03005KT 03/M04 A3024 RMK A01 T00341035  RH  060%=      5-min Rain = 0
KEN1 072059Z 01005KT 04/M03 A3024 RMK A01 T00351034  RH  061%=      5-min Rain = 0
KEN1 072100Z 03006KT 04/M03 A3024 RMK A01 T00351034  RH  061%=      5-min Rain = 0
KEN1 072101Z 05006KT 04/M03 A3024 RMK A01 T00351034  RH  060%=      5-min Rain = 0
KEN1 072102Z 03006KT 04/M03 A3024 RMK A01 T00351034  RH  060%=      5-min Rain = 0
KEN1 072103Z 04006KT 04/M03 A3024 RMK A01 T00351034  RH  060%=      5-min Rain = 0
KEN1 072104Z 04007KT 04/M03 A3024 RMK A01 T00351034  RH  060%=      5-min Rain = 0
KEN1 072105Z 03005KT 04/M03 A3024 RMK A01 T00351034  RH  060%=      5-min Rain = 0
KEN1 072106Z 03005KT 04/M03 A3024 RMK A01 T00351034  RH  061%=      5-min Rain = 0
KEN1 072107Z 02006KT 03/M03 A3023 RMK A01 T00341034  RH  061%=      5-min Rain = 0
KEN1 072108Z 03006KT 04/M03 A3023 RMK A01 T00351033  RH  061%=      5-min Rain = 0
KEN1 072109Z 03006KT 04/M03 A3023 RMK A01 T00361033  RH  061%=      5-min Rain = 0
KEN1 072110Z 04006KT 04/M03 A3023 RMK A01 T00361033  RH  060%=      5-min Rain = 0
KEN1 072111Z 05005KT 04/M03 A3023 RMK A01 T00361034  RH  060%=      5-min Rain = 0
KEN1 072112Z 03006KT 04/M03 A3023 RMK A01 T00371033  RH  060%=      5-min Rain = 0
KEN1 072113Z 04007KT 04/M03 A3023 RMK A01 T00371034  RH  060%=      5-min Rain = 0
KEN1 072114Z 04007KT 04/M03 A3023 RMK A01 T00371034  RH  060%=      5-min Rain = 0
KEN1 072115Z 03005KT 04/M03 A3023 RMK A01 T00371033  RH  060%=      5-min Rain = 0
KEN1 072116Z 03008KT 04/M03 A3023 RMK A01 T00381033  RH  060%=      5-min Rain = 0
KEN1 072117Z 03006KT 04/M04 A3023 RMK A01 T00371035  RH  060%=      5-min Rain = 0
KEN1 072118Z 03005KT 04/M04 A3023 RMK A01 T00361035  RH  060%=      5-min Rain = 0
KEN1 072119Z 04008KT 04/M03 A3023 RMK A01 T00361033  RH  060%=      5-min Rain = 0
KEN1 072120Z 04008KT 04/M03 A3023 RMK A01 T00371033  RH  060%=      5-min Rain = 0
KEN1 072121Z 04008KT 04/M03 A3023 RMK A01 T00361034  RH  060%=      5-min Rain = 0
KEN1 072122Z 03007KT 04/M03 A3023 RMK A01 T00361034  RH  060%=      5-min Rain = 0
KEN1 072123Z 03005KT 04/M03 A3023 RMK A01 T00361034  RH  060%=      5-min Rain = 0
KEN1 072124Z 02006KT 04/M03 A3023 RMK A01 T00361033  RH  061%=      5-min Rain = 0
KEN1 072125Z 03007KT 04/M03 A3023 RMK A01 T00361033  RH  060%=      5-min Rain = 0
KEN1 072126Z 04008KT 04/M03 A3023 RMK A01 T00361034  RH  060%=      5-min Rain = 0
KEN1 072127Z 04007KT 04/M03 A3023 RMK A01 T00361033  RH  060%=      5-min Rain = 0
KEN1 072128Z 04006KT 04/M03 A3023 RMK A01 T00361033  RH  061%=      5-min Rain = 0
KEN1 072129Z 03005KT 04/M03 A3023 RMK A01 T00361032  RH  061%=      5-min Rain = 0
KEN1 072130Z 04007KT 04/M03 A3023 RMK A01 T00351033  RH  061%=      5-min Rain = 0
KEN1 072131Z 02007KT 04/M03 A3023 RMK A01 T00361034  RH  060%=      5-min Rain = 0
KEN1 072132Z 03006KT 04/M03 A3023 RMK A01 T00361034  RH  060%=      5-min Rain = 0
KEN1 072133Z 05004KT 04/M03 A3023 RMK A01 T00361033  RH  060%=      5-min Rain = 0
KEN1 072134Z 02006KT 04/M03 A3023 RMK A01 T00371032  RH  060%=      5-min Rain = 0
KEN1 072135Z 04007KT 04/M03 A3023 RMK A01 T00371033  RH  060%=      5-min Rain = 0
KEN1 072136Z 04007KT 04/M03 A3023 RMK A01 T00361034  RH  060%=      5-min Rain = 0
KEN1 072137Z 02007KT 04/M03 A3023 RMK A01 T00351034  RH  061%=      5-min Rain = 0
KEN1 072138Z 02007KT 04/M03 A3023 RMK A01 T00351033  RH  061%=      5-min Rain = 0
KEN1 072139Z 03008KT 04/M03 A3023 RMK A01 T00351034  RH  061%=      5-min Rain = 0
KEN1 072140Z 02008KT 03/M03 A3023 RMK A01 T00341034  RH  061%=      5-min Rain = 0
KEN1 072141Z 03006KT 04/M03 A3023 RMK A01 T00351034  RH  061%=      5-min Rain = 0
KEN1 072142Z 03006KT 03/M04 A3023 RMK A01 T00341035  RH  061%=      5-min Rain = 0
KEN1 072143Z 04005KT 03/M04 A3023 RMK A01 T00341035  RH  061%=      5-min Rain = 0
KEN1 072144Z 02005KT 04/M04 A3023 RMK A01 T00351035  RH  061%=      5-min Rain = 0
KEN1 072145Z 02007KT 04/M03 A3023 RMK A01 T00351034  RH  061%=      5-min Rain = 0
KEN1 072146Z 02007KT 04/M03 A3023 RMK A01 T00361034  RH  060%=      5-min Rain = 0
KEN1 072147Z 03006KT 04/M04 A3023 RMK A01 T00361035  RH  060%=      5-min Rain = 0
KEN1 072148Z 03006KT 04/M04 A3023 RMK A01 T00351035  RH  060%=      5-min Rain = 0
KEN1 072149Z 03007KT 04/M03 A3023 RMK A01 T00361034  RH  060%=      5-min Rain = 0
KEN1 072150Z 04008KT 04/M03 A3023 RMK A01 T00371034  RH  060%=      5-min Rain = 0
KEN1 072151Z 03007KT 04/M03 A3023 RMK A01 T00371034  RH  060%=      5-min Rain = 0
KEN1 072152Z 03007KT 04/M04 A3023 RMK A01 T00361035  RH  060%=      5-min Rain = 0
KEN1 072153Z 03009KT 04/M04 A3023 RMK A01 T00351035  RH  060%=      5-min Rain = 0
KEN1 072154Z 03009KT 04/M04 A3023 RMK A01 T00351035  RH  060%=      5-min Rain = 0
KEN1 072155Z 03008KT 04/M04 A3023 RMK A01 T00351035  RH  060%=      5-min Rain = 0
KEN1 072156Z 04009KT 04/M04 A3023 RMK A01 T00361035  RH  060%=      5-min Rain = 0
KEN1 072157Z 04007KT 04/M04 A3023 RMK A01 T00351035  RH  060%=      5-min Rain = 0
KEN1 072158Z 04006KT 04/M04 A3023 RMK A01 T00351035  RH  060%=      5-min Rain = 0
KEN1 072159Z 04007KT 04/M04 A3023 RMK A01 T00351035  RH  060%=      5-min Rain = 0
KEN1 072200Z 04007KT 04/M04 A3023 RMK A01 T00351035  RH  060%=      5-min Rain = 0
KEN1 072201Z 05007KT 04/M04 A3023 RMK A01 T00351035  RH  060%=      5-min Rain = 0
KEN1 072202Z 04007KT 04/M04 A3023 RMK A01 T00351035  RH  060%=      5-min Rain = 0
KEN1 072203Z 04007KT 04/M04 A3023 RMK A01 T00351035  RH  060%=      5-min Rain = 0
KEN1 072204Z 04006KT 04/M04 A3023 RMK A01 T00361035  RH  060%=      5-min Rain = 0
KEN1 072205Z 03007KT 04/M04 A3023 RMK A01 T00351035  RH  060%=      5-min Rain = 0
KEN1 072206Z 03007KT 04/M04 A3023 RMK A01 T00351035  RH  060%=      5-min Rain = 0
KEN1 072207Z 03006KT 04/M04 A3023 RMK A01 T00351036  RH  060%=      5-min Rain = 0
KEN1 072208Z 03007KT 03/M04 A3023 RMK A01 T00341036  RH  060%=      5-min Rain = 0
KEN1 072209Z 03007KT 03/M04 A3023 RMK A01 T00341036  RH  060%=      5-min Rain = 0
KEN1 072210Z 03006KT 03/M04 A3023 RMK A01 T00341036  RH  060%=      5-min Rain = 0
KEN1 072211Z 04007KT 03/M04 A3023 RMK A01 T00341036  RH  060%=      5-min Rain = 0
KEN1 072212Z 05007KT 03/M04 A3023 RMK A01 T00341035  RH  060%=      5-min Rain = 0
KEN1 072213Z 04007KT 04/M04 A3023 RMK A01 T00351035  RH  060%=      5-min Rain = 0
KEN1 072214Z 05006KT 03/M04 A3023 RMK A01 T00341036  RH  060%=      5-min Rain = 0
KEN1 072215Z 03007KT 03/M04 A3023 RMK A01 T00341036  RH  060%=      5-min Rain = 0
KEN1 072216Z 03006KT 03/M04 A3023 RMK A01 T00341036  RH  060%=      5-min Rain = 0
KEN1 072217Z 03008KT 03/M04 A3023 RMK A01 T00341036  RH  060%=      5-min Rain = 0
KEN1 072218Z 04008KT 03/M04 A3023 RMK A01 T00341035  RH  060%=      5-min Rain = 0
KEN1 072219Z 05007KT 04/M04 A3023 RMK A01 T00351035  RH  060%=      5-min Rain = 0
KEN1 072220Z 05006KT 04/M03 A3023 RMK A01 T00351034  RH  061%=      5-min Rain = 0
KEN1 072221Z 05007KT 04/M03 A3023 RMK A01 T00361033  RH  061%=      5-min Rain = 0
KEN1 072222Z 05009KT 04/M03 A3023 RMK A01 T00361034  RH  060%=      5-min Rain = 0
KEN1 072223Z 05006KT 04/M03 A3023 RMK A01 T00361034  RH  060%=      5-min Rain = 0
KEN1 072224Z 05008KT 04/M03 A3023 RMK A01 T00351034  RH  061%=      5-min Rain = 0
KEN1 072225Z 05007KT 04/M03 A3023 RMK A01 T00361033  RH  061%=      5-min Rain = 0
KEN1 072226Z 04006KT 04/M03 A3023 RMK A01 T00361033  RH  061%=      5-min Rain = 0
KEN1 072227Z 03007KT 04/M03 A3023 RMK A01 T00371033  RH  060%=      5-min Rain = 0
KEN1 072228Z 04007KT 04/M03 A3023 RMK A01 T00371034  RH  060%=      5-min Rain = 0
KEN1 072229Z 04005KT 04/M03 A3023 RMK A01 T00361034  RH  060%=      5-min Rain = 0
KEN1 072230Z 04006KT 04/M03 A3023 RMK A01 T00361034  RH  060%=      5-min Rain = 0
KEN1 072231Z 03006KT 04/M04 A3023 RMK A01 T00361035  RH  060%=      5-min Rain = 0
KEN1 072232Z 04008KT 04/M04 A3023 RMK A01 T00361035  RH  060%=      5-min Rain = 0
KEN1 072233Z 05007KT 04/M03 A3023 RMK A01 T00361034  RH  060%=      5-min Rain = 0
KEN1 072234Z 04008KT 04/M03 A3023 RMK A01 T00361034  RH  060%=      5-min Rain = 0
KEN1 072235Z 03006KT 04/M03 A3023 RMK A01 T00361034  RH  060%=      5-min Rain = 0
KEN1 072236Z 03006KT 04/M04 A3023 RMK A01 T00351035  RH  060%=      5-min Rain = 0
KEN1 072237Z 03005KT 04/M03 A3023 RMK A01 T00351034  RH  060%=      5-min Rain = 0
KEN1 072238Z 03007KT 04/M04 A3023 RMK A01 T00351036  RH  060%=      5-min Rain = 0
KEN1 072239Z 03006KT 04/M04 A3023 RMK A01 T00351036  RH  060%=      5-min Rain = 0
KEN1 072240Z 04006KT 04/M04 A3023 RMK A01 T00351036  RH  060%=      5-min Rain = 0
KEN1 072241Z 03008KT 04/M04 A3023 RMK A01 T00351036  RH  060%=      5-min Rain = 0
KEN1 072242Z 03007KT 04/M04 A3023 RMK A01 T00351036  RH  060%=      5-min Rain = 0
KEN1 072243Z 03007KT 03/M04 A3023 RMK A01 T00341036  RH  060%=      5-min Rain = 0
KEN1 072244Z 04007KT 03/M04 A3023 RMK A01 T00341036  RH  060%=      5-min Rain = 0
KEN1 072245Z 03006KT 03/M04 A3023 RMK A01 T00341037  RH  060%=      5-min Rain = 0
KEN1 072246Z 03007KT 03/M04 A3023 RMK A01 T00341037  RH  060%=      5-min Rain = 0
KEN1 072247Z 03008KT 03/M04 A3023 RMK A01 T00341037  RH  060%=      5-min Rain = 0
KEN1 072248Z 03008KT 03/M04 A3023 RMK A01 T00341037  RH  060%=      5-min Rain = 0
KEN1 072249Z 03007KT 03/M04 A3023 RMK A01 T00341036  RH  060%=      5-min Rain = 0
KEN1 072250Z 03007KT 03/M04 A3023 RMK A01 T00341036  RH  060%=      5-min Rain = 0
KEN1 072251Z 03007KT 03/M04 A3023 RMK A01 T00341036  RH  060%=      5-min Rain = 0
KEN1 072252Z 03007KT 03/M04 A3022 RMK A01 T00331037  RH  060%=      5-min Rain = 0
KEN1 072253Z 03007KT 03/M04 A3022 RMK A01 T00331037  RH  060%=      5-min Rain = 0
KEN1 072254Z 03008KT 03/M04 A3022 RMK A01 T00331037  RH  060%=      5-min Rain = 0
KEN1 072255Z 03007KT 03/M04 A3022 RMK A01 T00331037  RH  060%=      5-min Rain = 0
KEN1 072256Z 02007KT 03/M04 A3022 RMK A01 T00331037  RH  060%=      5-min Rain = 0
KEN1 072257Z 03009KT 03/M04 A3022 RMK A01 T00331037  RH  060%=      5-min Rain = 0
KEN1 072258Z 02009KT 03/M04 A3022 RMK A01 T00321038  RH  060%=      5-min Rain = 0
KEN1 072259Z 02008KT 03/M04 A3022 RMK A01 T00321038  RH  060%=      5-min Rain = 0
KEN1 072300Z 02008KT 03/M04 A3022 RMK A01 T00321038  RH  060%=      5-min Rain = 0
KEN1 072301Z 03008KT 03/M04 A3022 RMK A01 T00321038  RH  060%=      5-min Rain = 0
KEN1 072302Z 03006KT 03/M04 A3022 RMK A01 T00321038  RH  060%=      5-min Rain = 0
KEN1 072303Z 04008KT 03/M04 A3022 RMK A01 T00321038  RH  060%=      5-min Rain = 0
KEN1 072304Z 03007KT 03/M04 A3022 RMK A01 T00321038  RH  060%=      5-min Rain = 0
KEN1 072305Z 04008KT 03/M04 A3022 RMK A01 T00321038  RH  060%=      5-min Rain = 0
KEN1 072306Z 04007KT 03/M04 A3022 RMK A01 T00321038  RH  060%=      5-min Rain = 0
KEN1 072307Z 04007KT 03/M04 A3022 RMK A01 T00321038  RH  060%=      5-min Rain = 0
KEN1 072308Z 04007KT 03/M04 A3023 RMK A01 T00321038  RH  060%=      5-min Rain = 0
KEN1 072309Z 05006KT 03/M04 A3022 RMK A01 T00321038  RH  060%=      5-min Rain = 0
KEN1 072310Z 05007KT 03/M04 A3023 RMK A01 T00321038  RH  060%=      5-min Rain = 0
KEN1 072311Z 04007KT 03/M04 A3023 RMK A01 T00321037  RH  060%=      5-min Rain = 0
KEN1 072312Z 04006KT 03/M04 A3023 RMK A01 T00321038  RH  060%=      5-min Rain = 0
KEN1 072313Z 04007KT 03/M04 A3023 RMK A01 T00321037  RH  060%=      5-min Rain = 0
KEN1 072314Z 04007KT 03/M04 A3023 RMK A01 T00321037  RH  060%=      5-min Rain = 0
KEN1 072315Z 04007KT 03/M04 A3023 RMK A01 T00321038  RH  060%=      5-min Rain = 0
KEN1 072316Z 04007KT 03/M04 A3023 RMK A01 T00311038  RH  060%=      5-min Rain = 0
KEN1 072317Z 03006KT 03/M04 A3023 RMK A01 T00311038  RH  060%=      5-min Rain = 0
KEN1 072318Z 03005KT 03/M04 A3023 RMK A01 T00311038  RH  060%=      5-min Rain = 0
KEN1 072319Z 04005KT 03/M04 A3023 RMK A01 T00311038  RH  060%=      5-min Rain = 0
KEN1 072320Z 03005KT 03/M04 A3023 RMK A01 T00311038  RH  060%=      5-min Rain = 0
KEN1 072321Z 03005KT 03/M04 A3023 RMK A01 T00311038  RH  060%=      5-min Rain = 0
KEN1 072322Z 03007KT 03/M04 A3023 RMK A01 T00311038  RH  060%=      5-min Rain = 0
KEN1 072323Z 04006KT 03/M04 A3023 RMK A01 T00311038  RH  060%=      5-min Rain = 0
KEN1 072324Z 04006KT 03/M04 A3023 RMK A01 T00311038  RH  060%=      5-min Rain = 0
KEN1 072325Z 04008KT 03/M04 A3023 RMK A01 T00311038  RH  060%=      5-min Rain = 0
KEN1 072326Z 04007KT 03/M04 A3023 RMK A01 T00311039  RH  060%=      5-min Rain = 0
KEN1 072327Z 04006KT 03/M04 A3023 RMK A01 T00311039  RH  060%=      5-min Rain = 0
KEN1 072328Z 04005KT 03/M04 A3023 RMK A01 T00301039  RH  060%=      5-min Rain = 0
KEN1 072329Z 04007KT 03/M04 A3023 RMK A01 T00311038  RH  060%=      5-min Rain = 0
KEN1 072330Z 03007KT 03/M04 A3023 RMK A01 T00311039  RH  060%=      5-min Rain = 0
KEN1 072331Z 03007KT 03/M04 A3023 RMK A01 T00311038  RH  061%=      5-min Rain = 0
KEN1 072332Z 03006KT 03/M04 A3023 RMK A01 T00311038  RH  061%=      5-min Rain = 0
KEN1 072333Z 03006KT 03/M04 A3023 RMK A01 T00301038  RH  061%=      5-min Rain = 0
KEN1 072334Z 03006KT 03/M04 A3023 RMK A01 T00301038  RH  061%=      5-min Rain = 0
KEN1 072335Z 03005KT 03/M04 A3023 RMK A01 T00301037  RH  061%=      5-min Rain = 0
KEN1 072336Z 03005KT 03/M04 A3023 RMK A01 T00301037  RH  061%=      5-min Rain = 0
KEN1 072337Z 04005KT 03/M04 A3023 RMK A01 T00301037  RH  061%=      5-min Rain = 0
KEN1 072338Z 03004KT 03/M04 A3023 RMK A01 T00301037  RH  061%=      5-min Rain = 0
KEN1 072339Z 03005KT 03/M04 A3023 RMK A01 T00301037  RH  061%=      5-min Rain = 0
KEN1 072340Z 03006KT 03/M04 A3023 RMK A01 T00301037  RH  061%=      5-min Rain = 0
KEN1 072341Z 02005KT 03/M04 A3023 RMK A01 T00301037  RH  061%=      5-min Rain = 0
KEN1 072342Z 03005KT 03/M04 A3024 RMK A01 T00301037  RH  061%=      5-min Rain = 0
KEN1 072343Z 03005KT 03/M04 A3024 RMK A01 T00301037  RH  061%=      5-min Rain = 0
KEN1 072344Z 04004KT 03/M04 A3024 RMK A01 T00301037  RH  061%=      5-min Rain = 0
KEN1 072345Z 04005KT 03/M04 A3024 RMK A01 T00301037  RH  062%=      5-min Rain = 0
KEN1 072346Z 04006KT 03/M04 A3024 RMK A01 T00301037  RH  062%=      5-min Rain = 0
KEN1 072347Z 04007KT 03/M04 A3024 RMK A01 T00301037  RH  062%=      5-min Rain = 0
KEN1 072348Z 03007KT 03/M04 A3024 RMK A01 T00301037  RH  061%=      5-min Rain = 0
KEN1 072349Z 03007KT 03/M04 A3024 RMK A01 T00301037  RH  061%=      5-min Rain = 0
KEN1 072350Z 04007KT 03/M04 A3024 RMK A01 T00301037  RH  061%=      5-min Rain = 0
KEN1 072351Z 03006KT 03/M04 A3024 RMK A01 T00301037  RH  062%=      5-min Rain = 0
KEN1 072352Z 04007KT 03/M04 A3024 RMK A01 T00301036  RH  062%=      5-min Rain = 0
KEN1 072353Z 03006KT 03/M04 A3024 RMK A01 T00301037  RH  062%=      5-min Rain = 0
KEN1 072354Z 03006KT 03/M04 A3024 RMK A01 T00301037  RH  062%=      5-min Rain = 0
KEN1 072355Z 04007KT 03/M04 A3024 RMK A01 T00301036  RH  062%=      5-min Rain = 0
KEN1 072356Z 04007KT 03/M04 A3024 RMK A01 T00291036  RH  062%=      5-min Rain = 0
KEN1 072357Z 03007KT 03/M04 A3024 RMK A01 T00291036  RH  062%=      5-min Rain = 0
KEN1 072358Z 03008KT 03/M04 A3024 RMK A01 T00291036  RH  062%=      5-min Rain = 0
KEN1 072359Z 04007KT 03/M04 A3024 RMK A01 T00291037  RH  062%=      5-min Rain = 0
KEN1 080000Z 05007KT 03/M04 A3024 RMK A01 T00291036  RH  062%=      5-min Rain = 0
KEN1 080001Z 05007KT 03/M04 A3024 RMK A01 T00291036  RH  062%=      5-min Rain = 0
KEN1 080002Z 05006KT 03/M04 A3024 RMK A01 T00291036  RH  062%=      5-min Rain = 0
KEN1 080003Z 05008KT 03/M04 A3024 RMK A01 T00281036  RH  062%=      5-min Rain = 0
KEN1 080004Z 05006KT 03/M04 A3024 RMK A01 T00281036  RH  062%=      5-min Rain = 0
KEN1 080005Z 05005KT 03/M04 A3024 RMK A01 T00281036  RH  062%=      5-min Rain = 0
KEN1 080006Z 05005KT 03/M04 A3024 RMK A01 T00281036  RH  063%=      5-min Rain = 0
KEN1 080007Z 05007KT 03/M04 A3024 RMK A01 T00281036  RH  063%=      5-min Rain = 0
KEN1 080008Z 05006KT 03/M04 A3024 RMK A01 T00281036  RH  063%=      5-min Rain = 0
KEN1 080009Z 04007KT 03/M04 A3024 RMK A01 T00281036  RH  063%=      5-min Rain = 0
KEN1 080010Z 04007KT 03/M04 A3024 RMK A01 T00281035  RH  063%=      5-min Rain = 0
KEN1 080011Z 04007KT 03/M04 A3024 RMK A01 T00281035  RH  063%=      5-min Rain = 0
KEN1 080012Z 05006KT 03/M04 A3024 RMK A01 T00271035  RH  063%=      5-min Rain = 0
KEN1 080013Z 05006KT 03/M04 A3024 RMK A01 T00271036  RH  063%=      5-min Rain = 0
KEN1 080014Z 05006KT 03/M04 A3024 RMK A01 T00271035  RH  064%=      5-min Rain = 0
KEN1 080015Z 04007KT 03/M04 A3024 RMK A01 T00271035  RH  064%=      5-min Rain = 0
KEN1 080016Z 04007KT 03/M04 A3024 RMK A01 T00271035  RH  064%=      5-min Rain = 0
KEN1 080017Z 04006KT 03/M04 A3024 RMK A01 T00271035  RH  064%=      5-min Rain = 0
KEN1 080018Z 04008KT 03/M04 A3024 RMK A01 T00271035  RH  064%=      5-min Rain = 0
KEN1 080019Z 04007KT 03/M04 A3024 RMK A01 T00271035  RH  064%=      5-min Rain = 0
KEN1 080020Z 04008KT 03/M04 A3024 RMK A01 T00271035  RH  064%=      5-min Rain = 0
KEN1 080021Z 04007KT 03/M04 A3024 RMK A01 T00261035  RH  064%=      5-min Rain = 0
KEN1 080022Z 04008KT 03/M04 A3024 RMK A01 T00271035  RH  064%=      5-min Rain = 0
KEN1 080023Z 04006KT 03/M04 A3024 RMK A01 T00271035  RH  064%=      5-min Rain = 0
KEN1 080024Z 04007KT 03/M03 A3024 RMK A01 T00271034  RH  064%=      5-min Rain = 0
KEN1 080025Z 04006KT 03/M03 A3024 RMK A01 T00261034  RH  064%=      5-min Rain = 0
KEN1 080026Z 03006KT 03/M03 A3024 RMK A01 T00261034  RH  064%=      5-min Rain = 0
KEN1 080027Z 04007KT 03/M03 A3024 RMK A01 T00261034  RH  064%=      5-min Rain = 0
KEN1 080028Z 03007KT 03/M03 A3024 RMK A01 T00261034  RH  064%=      5-min Rain = 0
KEN1 080029Z 03007KT 03/M04 A3024 RMK A01 T00261035  RH  064%=      5-min Rain = 0
KEN1 080030Z 03007KT 03/M03 A3024 RMK A01 T00261034  RH  065%=      5-min Rain = 0
KEN1 080031Z 04007KT 03/M03 A3024 RMK A01 T00261034  RH  065%=      5-min Rain = 0
KEN1 080032Z 04008KT 03/M03 A3024 RMK A01 T00261034  RH  065%=      5-min Rain = 0
KEN1 080033Z 04007KT 03/M04 A3024 RMK A01 T00251035  RH  065%=      5-min Rain = 0
KEN1 080034Z 03006KT 03/M03 A3024 RMK A01 T00251034  RH  065%=      5-min Rain = 0
KEN1 080035Z 03008KT 03/M03 A3024 RMK A01 T00251034  RH  065%=      5-min Rain = 0
KEN1 080036Z 04007KT 03/M03 A3024 RMK A01 T00251034  RH  065%=      5-min Rain = 0
KEN1 080037Z 04008KT 03/M03 A3024 RMK A01 T00251034  RH  065%=      5-min Rain = 0
KEN1 080038Z 04009KT 03/M03 A3024 RMK A01 T00251034  RH  065%=      5-min Rain = 0
KEN1 080039Z 04007KT 03/M03 A3024 RMK A01 T00251034  RH  065%=      5-min Rain = 0
KEN1 080040Z 04008KT 03/M03 A3024 RMK A01 T00251034  RH  065%=      5-min Rain = 0
KEN1 080041Z 04007KT 03/M03 A3024 RMK A01 T00251034  RH  065%=      5-min Rain = 0
KEN1 080042Z 04007KT 03/M03 A3024 RMK A01 T00251034  RH  065%=      5-min Rain = 0
KEN1 080043Z 04006KT 03/M03 A3024 RMK A01 T00251034  RH  065%=      5-min Rain = 0
KEN1 080044Z 05005KT 02/M03 A3024 RMK A01 T00241034  RH  065%=      5-min Rain = 0
KEN1 080045Z 05006KT 02/M03 A3024 RMK A01 T00241034  RH  065%=      5-min Rain = 0
KEN1 080046Z 05007KT 03/M03 A3024 RMK A01 T00251033  RH  066%=      5-min Rain = 0
KEN1 080047Z 05007KT 03/M03 A3024 RMK A01 T00251033  RH  066%=      5-min Rain = 0
KEN1 080048Z 05006KT 02/M03 A3024 RMK A01 T00241033  RH  066%=      5-min Rain = 0
KEN1 080049Z 05006KT 02/M03 A3024 RMK A01 T00241033  RH  066%=      5-min Rain = 0
KEN1 080050Z 04007KT 02/M03 A3024 RMK A01 T00241033  RH  066%=      5-min Rain = 0
KEN1 080051Z 05007KT 02/M03 A3024 RMK A01 T00241033  RH  066%=      5-min Rain = 0
KEN1 080052Z 05006KT 02/M03 A3024 RMK A01 T00241033  RH  066%=      5-min Rain = 0
KEN1 080053Z 05006KT 02/M03 A3025 RMK A01 T00241033  RH  066%=      5-min Rain = 0
KEN1 080054Z 05007KT 02/M03 A3025 RMK A01 T00241033  RH  066%=      5-min Rain = 0
KEN1 080055Z 05006KT 02/M03 A3025 RMK A01 T00241033  RH  066%=      5-min Rain = 0
KEN1 080056Z 05006KT 02/M03 A3025 RMK A01 T00241033  RH  066%=      5-min Rain = 0
KEN1 080057Z 05005KT 02/M03 A3025 RMK A01 T00241032  RH  066%=      5-min Rain = 0
KEN1 080058Z 05006KT 02/M03 A3025 RMK A01 T00241033  RH  066%=      5-min Rain = 0
KEN1 080059Z 05006KT 02/M03 A3025 RMK A01 T00241033  RH  066%=      5-min Rain = 0
KEN1 080100Z 06006KT 02/M03 A3025 RMK A01 T00231033  RH  066%=      5-min Rain = 0
KEN1 080101Z 06006KT 02/M03 A3025 RMK A01 T00241032  RH  066%=      5-min Rain = 0
KEN1 080102Z 06006KT 02/M03 A3025 RMK A01 T00231033  RH  067%=      5-min Rain = 0
KEN1 080103Z 06007KT 02/M03 A3025 RMK A01 T00231033  RH  066%=      5-min Rain = 0
KEN1 080104Z 05006KT 02/M03 A3025 RMK A01 T00231033  RH  066%=      5-min Rain = 0
KEN1 080105Z 05006KT 02/M03 A3025 RMK A01 T00231033  RH  067%=      5-min Rain = 0
KEN1 080106Z 06006KT 02/M03 A3025 RMK A01 T00231033  RH  066%=      5-min Rain = 0
KEN1 080107Z 05006KT 02/M03 A3025 RMK A01 T00231033  RH  066%=      5-min Rain = 0
KEN1 080108Z 05005KT 02/M03 A3025 RMK A01 T00231033  RH  067%=      5-min Rain = 0
KEN1 080109Z 06006KT 02/M03 A3025 RMK A01 T00231033  RH  067%=      5-min Rain = 0
KEN1 080110Z 05005KT 02/M03 A3025 RMK A01 T00221033  RH  067%=      5-min Rain = 0
KEN1 080111Z 06005KT 02/M03 A3025 RMK A01 T00231033  RH  067%=      5-min Rain = 0
KEN1 080112Z 06005KT 02/M03 A3025 RMK A01 T00231033  RH  067%=      5-min Rain = 0
KEN1 080113Z 05005KT 02/M03 A3025 RMK A01 T00231033  RH  067%=      5-min Rain = 0
KEN1 080114Z 06005KT 02/M03 A3025 RMK A01 T00231032  RH  067%=      5-min Rain = 0
KEN1 080115Z 06005KT 02/M03 A3025 RMK A01 T00231032  RH  067%=      5-min Rain = 0
KEN1 080116Z 06005KT 02/M03 A3025 RMK A01 T00231033  RH  067%=      5-min Rain = 0
KEN1 080117Z 06005KT 02/M03 A3025 RMK A01 T00231032  RH  067%=      5-min Rain = 0
KEN1 080118Z 05005KT 02/M03 A3026 RMK A01 T00231032  RH  067%=      5-min Rain = 0
KEN1 080119Z 05005KT 02/M03 A3026 RMK A01 T00231032  RH  067%=      5-min Rain = 0
KEN1 080120Z 05004KT 02/M03 A3026 RMK A01 T00231033  RH  067%=      5-min Rain = 0
KEN1 080121Z 06004KT 02/M03 A3026 RMK A01 T00231033  RH  067%=      5-min Rain = 0
KEN1 080122Z 05004KT 02/M03 A3026 RMK A01 T00231033  RH  067%=      5-min Rain = 0
KEN1 080123Z 05005KT 02/M03 A3026 RMK A01 T00231032  RH  067%=      5-min Rain = 0
KEN1 080124Z 06005KT 02/M03 A3026 RMK A01 T00231033  RH  067%=      5-min Rain = 0
KEN1 080125Z 05005KT 02/M03 A3026 RMK A01 T00231033  RH  067%=      5-min Rain = 0
KEN1 080126Z 05005KT 02/M03 A3026 RMK A01 T00231033  RH  067%=      5-min Rain = 0
KEN1 080127Z 06005KT 02/M03 A3026 RMK A01 T00231033  RH  067%=      5-min Rain = 0
KEN1 080128Z 06005KT 02/M03 A3026 RMK A01 T00231033  RH  067%=      5-min Rain = 0
KEN1 080129Z 06005KT 02/M03 A3027 RMK A01 T00231033  RH  067%=      5-min Rain = 0
KEN1 080130Z 06005KT 02/M03 A3027 RMK A01 T00231033  RH  067%=      5-min Rain = 0
KEN1 080131Z 06004KT 02/M03 A3027 RMK A01 T00221033  RH  067%=      5-min Rain = 0
KEN1 080132Z 06004KT 02/M03 A3027 RMK A01 T00231033  RH  067%=      5-min Rain = 0
KEN1 080133Z 06004KT 02/M03 A3027 RMK A01 T00231033  RH  067%=      5-min Rain = 0
KEN1 080134Z 06004KT 02/M03 A3027 RMK A01 T00231033  RH  067%=      5-min Rain = 0
KEN1 080135Z 06004KT 02/M03 A3027 RMK A01 T00221033  RH  067%=      5-min Rain = 0
KEN1 080136Z 06003KT 02/M03 A3027 RMK A01 T00221033  RH  067%=      5-min Rain = 0
KEN1 080137Z 06003KT 02/M03 A3027 RMK A01 T00221033  RH  067%=      5-min Rain = 0
KEN1 080138Z 06004KT 02/M03 A3027 RMK A01 T00221033  RH  067%=      5-min Rain = 0
KEN1 080139Z 06004KT 02/M03 A3027 RMK A01 T00221033  RH  067%=      5-min Rain = 0
KEN1 080140Z 06005KT 02/M03 A3027 RMK A01 T00221033  RH  067%=      5-min Rain = 0
KEN1 080141Z 05004KT 02/M03 A3027 RMK A01 T00221033  RH  067%=      5-min Rain = 0
KEN1 080142Z 06004KT 02/M03 A3027 RMK A01 T00221033  RH  067%=      5-min Rain = 0
KEN1 080143Z 06003KT 02/M03 A3027 RMK A01 T00221033  RH  067%=      5-min Rain = 0
KEN1 080144Z 06003KT 02/M03 A3027 RMK A01 T00221033  RH  067%=      5-min Rain = 0
KEN1 080145Z 06003KT 02/M03 A3027 RMK A01 T00221033  RH  067%=      5-min Rain = 0
KEN1 080146Z 06003KT 02/M03 A3028 RMK A01 T00221033  RH  067%=      5-min Rain = 0
KEN1 080147Z 06003KT 02/M03 A3028 RMK A01 T00211033  RH  067%=      5-min Rain = 0
KEN1 080148Z 06003KT 02/M03 A3028 RMK A01 T00211034  RH  067%=      5-min Rain = 0
KEN1 080149Z 06003KT 02/M03 A3028 RMK A01 T00211033  RH  067%=      5-min Rain = 0
KEN1 080150Z 05003KT 02/M03 A3028 RMK A01 T00211033  RH  067%=      5-min Rain = 0
KEN1 080151Z 05002KT 02/M03 A3028 RMK A01 T00211033  RH  067%=      5-min Rain = 0
KEN1 080152Z 05002KT 02/M03 A3028 RMK A01 T00211033  RH  067%=      5-min Rain = 0
KEN1 080153Z 06002KT 02/M03 A3028 RMK A01 T00211033  RH  068%=      5-min Rain = 0
KEN1 080154Z 06002KT 02/M03 A3028 RMK A01 T00211033  RH  068%=      5-min Rain = 0
KEN1 080155Z 06003KT 02/M03 A3028 RMK A01 T00211032  RH  068%=      5-min Rain = 0
KEN1 080156Z 06003KT 02/M03 A3028 RMK A01 T00211032  RH  068%=      5-min Rain = 0
KEN1 080157Z 05003KT 02/M03 A3028 RMK A01 T00201032  RH  068%=      5-min Rain = 0
KEN1 080158Z 05003KT 02/M03 A3028 RMK A01 T00201032  RH  068%=      5-min Rain = 0
KEN1 080159Z 05004KT 02/M03 A3028 RMK A01 T00201032  RH  068%=      5-min Rain = 0
KEN1 080200Z 06003KT 02/M03 A3028 RMK A01 T00201033  RH  068%=      5-min Rain = 0
KEN1 080201Z 06003KT 02/M03 A3028 RMK A01 T00201033  RH  068%=      5-min Rain = 0
KEN1 080202Z 06003KT 02/M03 A3028 RMK A01 T00201033  RH  068%=      5-min Rain = 0
KEN1 080203Z 06004KT 02/M03 A3028 RMK A01 T00201033  RH  068%=      5-min Rain = 0
KEN1 080204Z 06003KT 02/M03 A3028 RMK A01 T00201034  RH  068%=      5-min Rain = 0
KEN1 080205Z 06004KT 02/M03 A3028 RMK A01 T00201033  RH  067%=      5-min Rain = 0
KEN1 080206Z 06003KT 02/M03 A3028 RMK A01 T00211033  RH  067%=      5-min Rain = 0
KEN1 080207Z 07004KT 02/M03 A3028 RMK A01 T00211033  RH  068%=      5-min Rain = 0
KEN1 080208Z 06004KT 02/M03 A3028 RMK A01 T00211033  RH  068%=      5-min Rain = 0
KEN1 080209Z 06003KT 02/M03 A3028 RMK A01 T00211033  RH  067%=      5-min Rain = 0
KEN1 080210Z 06005KT 02/M03 A3028 RMK A01 T00211033  RH  067%=      5-min Rain = 0
KEN1 080211Z 06005KT 02/M03 A3028 RMK A01 T00211034  RH  067%=      5-min Rain = 0
KEN1 080212Z 06005KT 02/M03 A3028 RMK A01 T00211034  RH  067%=      5-min Rain = 0
KEN1 080213Z 07005KT 02/M03 A3028 RMK A01 T00211034  RH  067%=      5-min Rain = 0
KEN1 080214Z 07005KT 02/M03 A3028 RMK A01 T00211034  RH  067%=      5-min Rain = 0
KEN1 080215Z 06004KT 02/M04 A3028 RMK A01 T00211035  RH  067%=      5-min Rain = 0
KEN1 080216Z 07004KT 02/M03 A3028 RMK A01 T00211034  RH  067%=      5-min Rain = 0
KEN1 080217Z 06005KT 02/M03 A3028 RMK A01 T00211034  RH  067%=      5-min Rain = 0
KEN1 080218Z 06004KT 02/M04 A3028 RMK A01 T00201035  RH  067%=      5-min Rain = 0
KEN1 080219Z 06004KT 02/M04 A3028 RMK A01 T00201035  RH  067%=      5-min Rain = 0
KEN1 080220Z 06004KT 02/M03 A3028 RMK A01 T00201034  RH  067%=      5-min Rain = 0
KEN1 080221Z 06004KT 02/M03 A3028 RMK A01 T00201034  RH  067%=      5-min Rain = 0
KEN1 080222Z 07004KT 02/M03 A3028 RMK A01 T00201034  RH  067%=      5-min Rain = 0
KEN1 080223Z 07005KT 02/M04 A3028 RMK A01 T00201035  RH  067%=      5-min Rain = 0
KEN1 080224Z 07004KT 02/M04 A3028 RMK A01 T00201035  RH  067%=      5-min Rain = 0
KEN1 080225Z 07004KT 02/M04 A3028 RMK A01 T00201035  RH  067%=      5-min Rain = 0
KEN1 080226Z 06004KT 02/M04 A3028 RMK A01 T00201035  RH  067%=      5-min Rain = 0
KEN1 080227Z 06003KT 02/M04 A3028 RMK A01 T00201035  RH  067%=      5-min Rain = 0
KEN1 080228Z 06003KT 02/M04 A3028 RMK A01 T00201035  RH  067%=      5-min Rain = 0
KEN1 080229Z 05003KT 02/M04 A3028 RMK A01 T00201035  RH  067%=      5-min Rain = 0
KEN1 080230Z 05004KT 02/M04 A3028 RMK A01 T00201035  RH  067%=      5-min Rain = 0
KEN1 080231Z 06003KT 02/M04 A3028 RMK A01 T00201035  RH  067%=      5-min Rain = 0
KEN1 080232Z 06002KT 02/M04 A3028 RMK A01 T00201035  RH  067%=      5-min Rain = 0
KEN1 080233Z 06003KT 02/M03 A3028 RMK A01 T00201034  RH  067%=      5-min Rain = 0
KEN1 080234Z 05002KT 02/M03 A3028 RMK A01 T00201034  RH  067%=      5-min Rain = 0
KEN1 080235Z 05003KT 02/M03 A3028 RMK A01 T00201034  RH  067%=      5-min Rain = 0
KEN1 080236Z 05003KT 02/M03 A3028 RMK A01 T00201034  RH  067%=      5-min Rain = 0
KEN1 080237Z 05002KT 02/M04 A3028 RMK A01 T00201035  RH  067%=      5-min Rain = 0
KEN1 080238Z 05003KT 02/M04 A3028 RMK A01 T00201035  RH  067%=      5-min Rain = 0
KEN1 080239Z 06003KT 02/M03 A3029 RMK A01 T00201034  RH  067%=      5-min Rain = 0
KEN1 080240Z 06003KT 02/M04 A3029 RMK A01 T00201035  RH  067%=      5-min Rain = 0
KEN1 080241Z 06002KT 02/M04 A3029 RMK A01 T00201035  RH  067%=      5-min Rain = 0
KEN1 080242Z 06002KT 02/M03 A3029 RMK A01 T00201034  RH  067%=      5-min Rain = 0
KEN1 080243Z 06002KT 02/M04 A3028 RMK A01 T00191035  RH  067%=      5-min Rain = 0
KEN1 080244Z 05003KT 02/M03 A3028 RMK A01 T00191034  RH  068%=      5-min Rain = 0
KEN1 080245Z 05002KT 02/M03 A3028 RMK A01 T00191034  RH  068%=      5-min Rain = 0
KEN1 080246Z 06003KT 02/M04 A3028 RMK A01 T00191035  RH  067%=      5-min Rain = 0
KEN1 080247Z 06002KT 02/M04 A3028 RMK A01 T00191035  RH  068%=      5-min Rain = 0
KEN1 080248Z 06003KT 02/M03 A3028 RMK A01 T00191034  RH  068%=      5-min Rain = 0
KEN1 080249Z 06003KT 02/M03 A3028 RMK A01 T00191034  RH  068%=      5-min Rain = 0
KEN1 080250Z 06003KT 02/M03 A3028 RMK A01 T00191034  RH  068%=      5-min Rain = 0
KEN1 080251Z 06003KT 02/M03 A3028 RMK A01 T00191034  RH  068%=      5-min Rain = 0
KEN1 080252Z 06003KT 02/M03 A3028 RMK A01 T00191034  RH  068%=      5-min Rain = 0
KEN1 080253Z 06003KT 02/M03 A3028 RMK A01 T00191034  RH  068%=      5-min Rain = 0
KEN1 080254Z 06003KT 02/M03 A3028 RMK A01 T00181034  RH  068%=      5-min Rain = 0
KEN1 080255Z 06003KT 02/M03 A3028 RMK A01 T00181034  RH  068%=      5-min Rain = 0
KEN1 080256Z 06003KT 02/M03 A3028 RMK A01 T00181034  RH  068%=      5-min Rain = 0
KEN1 080257Z 06003KT 02/M03 A3028 RMK A01 T00191034  RH  068%=      5-min Rain = 0
KEN1 080258Z 05003KT 02/M03 A3028 RMK A01 T00181034  RH  068%=      5-min Rain = 0
KEN1 080259Z 05003KT 02/M03 A3028 RMK A01 T00181034  RH  068%=      5-min Rain = 0
KEN1 080300Z 06003KT 02/M03 A3028 RMK A01 T00181034  RH  068%=      5-min Rain = 0
KEN1 080301Z 05003KT 02/M03 A3028 RMK A01 T00181034  RH  068%=      5-min Rain = 0
KEN1 080302Z 05002KT 02/M03 A3028 RMK A01 T00181034  RH  069%=      5-min Rain = 0
KEN1 080303Z 05002KT 02/M03 A3028 RMK A01 T00181034  RH  069%=      5-min Rain = 0
KEN1 080304Z 06002KT 02/M03 A3029 RMK A01 T00181034  RH  069%=      5-min Rain = 0
KEN1 080305Z 06002KT 02/M03 A3029 RMK A01 T00181033  RH  069%=      5-min Rain = 0
KEN1 080306Z 06002KT 02/M03 A3029 RMK A01 T00181033  RH  069%=      5-min Rain = 0
KEN1 080307Z 05002KT 02/M03 A3029 RMK A01 T00181033  RH  069%=      5-min Rain = 0
KEN1 080308Z 06003KT 02/M03 A3029 RMK A01 T00181033  RH  069%=      5-min Rain = 0
KEN1 080309Z 06003KT 02/M03 A3029 RMK A01 T00181033  RH  069%=      5-min Rain = 0
KEN1 080310Z 07003KT 02/M03 A3029 RMK A01 T00171033  RH  069%=      5-min Rain = 0
KEN1 080311Z 07003KT 02/M03 A3029 RMK A01 T00171033  RH  069%=      5-min Rain = 0
KEN1 080312Z 07003KT 02/M03 A3029 RMK A01 T00171033  RH  069%=      5-min Rain = 0
KEN1 080313Z 07004KT 02/M03 A3029 RMK A01 T00171033  RH  069%=      5-min Rain = 0
KEN1 080314Z 07003KT 02/M03 A3029 RMK A01 T00171033  RH  069%=      5-min Rain = 0
KEN1 080315Z 07003KT 02/M03 A3029 RMK A01 T00171033  RH  069%=      5-min Rain = 0
KEN1 080316Z 07004KT 02/M03 A3029 RMK A01 T00171033  RH  069%=      5-min Rain = 0
KEN1 080317Z 07003KT 02/M03 A3029 RMK A01 T00171033  RH  069%=      5-min Rain = 0
KEN1 080318Z 07003KT 02/M03 A3029 RMK A01 T00171033  RH  069%=      5-min Rain = 0
KEN1 080319Z 07003KT 02/M03 A3029 RMK A01 T00171033  RH  069%=      5-min Rain = 0
KEN1 080320Z 08003KT 02/M03 A3029 RMK A01 T00171033  RH  070%=      5-min Rain = 0
KEN1 080321Z 08005KT 02/M03 A3029 RMK A01 T00171033  RH  069%=      5-min Rain = 0
KEN1 080322Z 08005KT 02/M03 A3029 RMK A01 T00171033  RH  069%=      5-min Rain = 0
KEN1 080323Z 08004KT 02/M03 A3029 RMK A01 T00171034  RH  069%=      5-min Rain = 0
KEN1 080324Z 08004KT 02/M03 A3029 RMK A01 T00171034  RH  069%=      5-min Rain = 0
KEN1 080325Z 08004KT 02/M03 A3029 RMK A01 T00181033  RH  069%=      5-min Rain = 0
KEN1 080326Z 08005KT 02/M03 A3029 RMK A01 T00181033  RH  069%=      5-min Rain = 0
KEN1 080327Z 09004KT 02/M03 A3029 RMK A01 T00171033  RH  069%=      5-min Rain = 0
KEN1 080328Z 08005KT 02/M03 A3029 RMK A01 T00181033  RH  069%=      5-min Rain = 0
KEN1 080329Z 08004KT 02/M03 A3029 RMK A01 T00171033  RH  069%=      5-min Rain = 0
KEN1 080330Z 08005KT 02/M03 A3029 RMK A01 T00171033  RH  069%=      5-min Rain = 0
KEN1 080331Z 07005KT 02/M03 A3029 RMK A01 T00171034  RH  069%=      5-min Rain = 0
KEN1 080332Z 08005KT 02/M03 A3029 RMK A01 T00181034  RH  069%=      5-min Rain = 0
KEN1 080333Z 08006KT 02/M03 A3029 RMK A01 T00171034  RH  068%=      5-min Rain = 0
KEN1 080334Z 08006KT 02/M04 A3029 RMK A01 T00171035  RH  068%=      5-min Rain = 0
KEN1 080335Z 08006KT 02/M04 A3029 RMK A01 T00171035  RH  068%=      5-min Rain = 0
KEN1 080336Z 08006KT 02/M04 A3029 RMK A01 T00171036  RH  068%=      5-min Rain = 0
KEN1 080337Z 08005KT 02/M04 A3029 RMK A01 T00171036  RH  068%=      5-min Rain = 0
KEN1 080338Z 09005KT 02/M04 A3029 RMK A01 T00171036  RH  068%=      5-min Rain = 0
KEN1 080339Z 09007KT 02/M04 A3029 RMK A01 T00171036  RH  068%=      5-min Rain = 0
KEN1 080340Z 09007KT 02/M04 A3029 RMK A01 T00161035  RH  069%=      5-min Rain = 0
KEN1 080341Z 09007KT 02/M04 A3029 RMK A01 T00161035  RH  069%=      5-min Rain = 0
KEN1 080342Z 09006KT 02/M04 A3029 RMK A01 T00161035  RH  069%=      5-min Rain = 0
KEN1 080343Z 09006KT 02/M03 A3029 RMK A01 T00161034  RH  069%=      5-min Rain = 0
KEN1 080344Z 09006KT 02/M03 A3029 RMK A01 T00151034  RH  070%=      5-min Rain = 0
KEN1 080345Z 09005KT 02/M03 A3029 RMK A01 T00151034  RH  070%=      5-min Rain = 0
KEN1 080346Z 09006KT 02/M03 A3029 RMK A01 T00151034  RH  070%=      5-min Rain = 0
KEN1 080347Z 09006KT 02/M03 A3029 RMK A01 T00151034  RH  070%=      5-min Rain = 0
KEN1 080348Z 09006KT 02/M03 A3029 RMK A01 T00151034  RH  070%=      5-min Rain = 0
KEN1 080349Z 09006KT 02/M03 A3029 RMK A01 T00151033  RH  070%=      5-min Rain = 0
KEN1 080350Z 09006KT 01/M03 A3029 RMK A01 T00141034  RH  070%=      5-min Rain = 0
KEN1 080351Z 09006KT 01/M03 A3028 RMK A01 T00141034  RH  070%=      5-min Rain = 0
KEN1 080352Z 09006KT 01/M03 A3028 RMK A01 T00141033  RH  071%=      5-min Rain = 0
KEN1 080353Z 09006KT 01/M03 A3028 RMK A01 T00141033  RH  071%=      5-min Rain = 0
KEN1 080354Z 09006KT 01/M03 A3028 RMK A01 T00141033  RH  071%=      5-min Rain = 0
KEN1 080355Z 09005KT 01/M03 A3028 RMK A01 T00141033  RH  071%=      5-min Rain = 0
KEN1 080356Z 08006KT 01/M03 A3028 RMK A01 T00141033  RH  071%=      5-min Rain = 0
KEN1 080357Z 09006KT 01/M03 A3028 RMK A01 T00141033  RH  071%=      5-min Rain = 0
KEN1 080358Z 09006KT 01/M03 A3028 RMK A01 T00141033  RH  071%=      5-min Rain = 0
KEN1 080359Z 09005KT 01/M03 A3028 RMK A01 T00141033  RH  071%=      5-min Rain = 0
KEN1 080400Z 09005KT 01/M03 A3028 RMK A01 T00141033  RH  071%=      5-min Rain = 0
KEN1 080401Z 08004KT 01/M03 A3028 RMK A01 T00131033  RH  071%=      5-min Rain = 0
KEN1 080402Z 09005KT 01/M03 A3028 RMK A01 T00131033  RH  071%=      5-min Rain = 0
KEN1 080403Z 09004KT 01/M03 A3028 RMK A01 T00131033  RH  071%=      5-min Rain = 0
KEN1 080404Z 09004KT 01/M03 A3028 RMK A01 T00131033  RH  071%=      5-min Rain = 0
KEN1 080405Z 09005KT 01/M03 A3028 RMK A01 T00141032  RH  072%=      5-min Rain = 0
KEN1 080406Z 09005KT 01/M03 A3028 RMK A01 T00141032  RH  072%=      5-min Rain = 0
KEN1 080407Z 08005KT 01/M03 A3028 RMK A01 T00131032  RH  072%=      5-min Rain = 0
KEN1 080408Z 08005KT 01/M03 A3028 RMK A01 T00131033  RH  072%=      5-min Rain = 0
KEN1 080409Z 08005KT 01/M03 A3028 RMK A01 T00131033  RH  072%=      5-min Rain = 0
KEN1 080410Z 08004KT 01/M03 A3028 RMK A01 T00131033  RH  072%=      5-min Rain = 0
KEN1 080411Z 08006KT 01/M03 A3028 RMK A01 T00131033  RH  072%=      5-min Rain = 0
KEN1 080412Z 09005KT 01/M03 A3028 RMK A01 T00131033  RH  072%=      5-min Rain = 0
KEN1 080413Z 09006KT 01/M03 A3028 RMK A01 T00131033  RH  072%=      5-min Rain = 0
KEN1 080414Z 09006KT 01/M03 A3028 RMK A01 T00121033  RH  071%=      5-min Rain = 0
KEN1 080415Z 08005KT 01/M03 A3028 RMK A01 T00131033  RH  071%=      5-min Rain = 0
KEN1 080416Z 08007KT 01/M03 A3028 RMK A01 T00121034  RH  071%=      5-min Rain = 0
KEN1 080417Z 08006KT 01/M03 A3028 RMK A01 T00131034  RH  071%=      5-min Rain = 0
KEN1 080418Z 08006KT 01/M03 A3028 RMK A01 T00131033  RH  071%=      5-min Rain = 0
KEN1 080419Z 09007KT 01/M03 A3028 RMK A01 T00131033  RH  071%=      5-min Rain = 0
KEN1 080420Z 09007KT 01/M03 A3028 RMK A01 T00131033  RH  071%=      5-min Rain = 0
KEN1 080421Z 09008KT 01/M03 A3028 RMK A01 T00121034  RH  071%=      5-min Rain = 0
KEN1 080422Z 09006KT 01/M04 A3028 RMK A01 T00121035  RH  071%=      5-min Rain = 0
KEN1 080423Z 09006KT 01/M04 A3028 RMK A01 T00121035  RH  071%=      5-min Rain = 0
KEN1 080424Z 09008KT 01/M04 A3028 RMK A01 T00121035  RH  071%=      5-min Rain = 0
KEN1 080425Z 09007KT 01/M04 A3028 RMK A01 T00121035  RH  071%=      5-min Rain = 0
KEN1 080426Z 08008KT 01/M04 A3029 RMK A01 T00121036  RH  071%=      5-min Rain = 0
KEN1 080427Z 09008KT 01/M04 A3029 RMK A01 T00121036  RH  070%=      5-min Rain = 0
KEN1 080428Z 08007KT 01/M04 A3029 RMK A01 T00121037  RH  070%=      5-min Rain = 0
KEN1 080429Z 08007KT 01/M04 A3029 RMK A01 T00111037  RH  070%=      5-min Rain = 0
KEN1 080430Z 08007KT 01/M04 A3029 RMK A01 T00121036  RH  071%=      5-min Rain = 0
KEN1 080431Z 08007KT 01/M04 A3028 RMK A01 T00121036  RH  071%=      5-min Rain = 0
KEN1 080432Z 08007KT 01/M04 A3029 RMK A01 T00121036  RH  070%=      5-min Rain = 0
KEN1 080433Z 08007KT 01/M04 A3029 RMK A01 T00111036  RH  070%=      5-min Rain = 0
KEN1 080434Z 08008KT 01/M04 A3029 RMK A01 T00121036  RH  071%=      5-min Rain = 0
KEN1 080435Z 08007KT 01/M04 A3029 RMK A01 T00111036  RH  071%=      5-min Rain = 0
KEN1 080436Z 09006KT 01/M04 A3029 RMK A01 T00121036  RH  071%=      5-min Rain = 0
KEN1 080437Z 09007KT 01/M04 A3029 RMK A01 T00121036  RH  071%=      5-min Rain = 0
KEN1 080438Z 08007KT 01/M04 A3029 RMK A01 T00111036  RH  071%=      5-min Rain = 0
KEN1 080439Z 08007KT 01/M04 A3029 RMK A01 T00111036  RH  071%=      5-min Rain = 0
KEN1 080440Z 08005KT 01/M04 A3029 RMK A01 T00111036  RH  071%=      5-min Rain = 0
KEN1 080441Z 09005KT 01/M04 A3029 RMK A01 T00121035  RH  071%=      5-min Rain = 0
KEN1 080442Z 09005KT 01/M04 A3029 RMK A01 T00121035  RH  071%=      5-min Rain = 0
KEN1 080443Z 09004KT 01/M04 A3029 RMK A01 T00121035  RH  071%=      5-min Rain = 0
KEN1 080444Z 09004KT 01/M04 A3029 RMK A01 T00121035  RH  071%=      5-min Rain = 0
KEN1 080445Z 09005KT 01/M04 A3029 RMK A01 T00121035  RH  071%=      5-min Rain = 0
KEN1 080446Z 09005KT 01/M04 A3029 RMK A01 T00121035  RH  071%=      5-min Rain = 0
KEN1 080447Z 09006KT 01/M04 A3029 RMK A01 T00121035  RH  071%=      5-min Rain = 0
KEN1 080448Z 09006KT 01/M04 A3029 RMK A01 T00121035  RH  071%=      5-min Rain = 0
KEN1 080449Z 09006KT 01/M04 A3029 RMK A01 T00111035  RH  071%=      5-min Rain = 0
KEN1 080450Z 09005KT 01/M04 A3029 RMK A01 T00111035  RH  071%=      5-min Rain = 0
KEN1 080451Z 09006KT 01/M04 A3029 RMK A01 T00111035  RH  071%=      5-min Rain = 0
KEN1 080452Z 09006KT 01/M04 A3029 RMK A01 T00111036  RH  071%=      5-min Rain = 0
KEN1 080453Z 10004KT 01/M04 A3029 RMK A01 T00111035  RH  071%=      5-min Rain = 0
KEN1 080454Z 09006KT 01/M04 A3029 RMK A01 T00111035  RH  071%=      5-min Rain = 0
KEN1 080455Z 08006KT 01/M04 A3029 RMK A01 T00111035  RH  071%=      5-min Rain = 0
KEN1 080456Z 08005KT 01/M04 A3029 RMK A01 T00111036  RH  071%=      5-min Rain = 0
KEN1 080457Z 09006KT 01/M04 A3029 RMK A01 T00111036  RH  071%=      5-min Rain = 0
KEN1 080458Z 09005KT 01/M04 A3029 RMK A01 T00111036  RH  071%=      5-min Rain = 0
KEN1 080459Z 09005KT 01/M04 A3029 RMK A01 T00111036  RH  071%=      5-min Rain = 0
KEN1 080500Z 08006KT 01/M04 A3029 RMK A01 T00111036  RH  071%=      5-min Rain = 0
KEN1 080501Z 09005KT 01/M04 A3029 RMK A01 T00111036  RH  071%=      5-min Rain = 0
KEN1 080502Z 08004KT 01/M04 A3029 RMK A01 T00111036  RH  071%=      5-min Rain = 0
KEN1 080503Z 09005KT 01/M04 A3029 RMK A01 T00111036  RH  071%=      5-min Rain = 0
KEN1 080504Z 08005KT 01/M04 A3029 RMK A01 T00101036  RH  071%=      5-min Rain = 0
KEN1 080505Z 09007KT 01/M04 A3029 RMK A01 T00111036  RH  071%=      5-min Rain = 0
KEN1 080506Z 09007KT 01/M04 A303 RMK A01 T00111036  RH  071%=      5-min Rain = 0
KEN1 080507Z 09006KT 01/M04 A303 RMK A01 T00111036  RH  071%=      5-min Rain = 0
KEN1 080508Z 08005KT 01/M04 A303 RMK A01 T00111036  RH  071%=      5-min Rain = 0
KEN1 080509Z 09005KT 01/M04 A303 RMK A01 T00111036  RH  071%=      5-min Rain = 0
KEN1 080510Z 09004KT 01/M04 A303 RMK A01 T00111036  RH  071%=      5-min Rain = 0
KEN1 080511Z 09005KT 01/M04 A303 RMK A01 T00111035  RH  071%=      5-min Rain = 0
KEN1 080512Z 09005KT 01/M04 A303 RMK A01 T00101036  RH  071%=      5-min Rain = 0
KEN1 080513Z 09004KT 01/M04 A303 RMK A01 T00111036  RH  071%=      5-min Rain = 0
KEN1 080514Z 09005KT 01/M04 A303 RMK A01 T00111035  RH  071%=      5-min Rain = 0
KEN1 080515Z 09004KT 01/M04 A303 RMK A01 T00111035  RH  071%=      5-min Rain = 0
KEN1 080516Z 10004KT 01/M04 A303 RMK A01 T00111035  RH  072%=      5-min Rain = 0
KEN1 080517Z 09005KT 01/M04 A303 RMK A01 T00111035  RH  072%=      5-min Rain = 0
KEN1 080518Z 10005KT 01/M04 A303 RMK A01 T00111035  RH  072%=      5-min Rain = 0
KEN1 080519Z 10005KT 01/M04 A303 RMK A01 T00111035  RH  071%=      5-min Rain = 0
KEN1 080520Z 09005KT 01/M04 A303 RMK A01 T00111035  RH  071%=      5-min Rain = 0
KEN1 080521Z 10005KT 01/M04 A303 RMK A01 T00111035  RH  071%=      5-min Rain = 0
KEN1 080522Z 09004KT 01/M04 A303 RMK A01 T00111035  RH  071%=      5-min Rain = 0
KEN1 080523Z 09004KT 01/M04 A303 RMK A01 T00111035  RH  071%=      5-min Rain = 0
KEN1 080524Z 09004KT 01/M04 A303 RMK A01 T00111035  RH  071%=      5-min Rain = 0
KEN1 080525Z 09006KT 01/M04 A303 RMK A01 T00101035  RH  071%=      5-min Rain = 0
KEN1 080526Z 08005KT 01/M04 A303 RMK A01 T00111035  RH  071%=      5-min Rain = 0
KEN1 080527Z 08005KT 01/M04 A303 RMK A01 T00101036  RH  071%=      5-min Rain = 0
KEN1 080528Z 08005KT 01/M04 A303 RMK A01 T00111036  RH  071%=      5-min Rain = 0
KEN1 080529Z 08004KT 01/M04 A303 RMK A01 T00111036  RH  071%=      5-min Rain = 0
KEN1 080530Z 08003KT 01/M04 A303 RMK A01 T00111036  RH  071%=      5-min Rain = 0
KEN1 080531Z 08005KT 01/M04 A303 RMK A01 T00111036  RH  071%=      5-min Rain = 0
KEN1 080532Z 09005KT 01/M04 A303 RMK A01 T00111036  RH  071%=      5-min Rain = 0
KEN1 080533Z 09005KT 01/M04 A303 RMK A01 T00111036  RH  071%=      5-min Rain = 0
KEN1 080534Z 08005KT 01/M04 A303 RMK A01 T00111036  RH  071%=      5-min Rain = 0
KEN1 080535Z 09005KT 01/M04 A303 RMK A01 T00101036  RH  071%=      5-min Rain = 0
KEN1 080536Z 08004KT 01/M04 A303 RMK A01 T00101036  RH  071%=      5-min Rain = 0
KEN1 080537Z 08004KT 01/M04 A303 RMK A01 T00101036  RH  071%=      5-min Rain = 0
KEN1 080538Z 08005KT 01/M04 A303 RMK A01 T00101036  RH  071%=      5-min Rain = 0
KEN1 080539Z 08005KT 01/M04 A303 RMK A01 T00101036  RH  071%=      5-min Rain = 0
KEN1 080540Z 08005KT 01/M04 A303 RMK A01 T00101036  RH  071%=      5-min Rain = 0
KEN1 080541Z 07005KT 01/M04 A303 RMK A01 T00101036  RH  071%=      5-min Rain = 0
KEN1 080542Z 07005KT 01/M04 A303 RMK A01 T00101036  RH  071%=      5-min Rain = 0
KEN1 080543Z 08005KT 01/M04 A303 RMK A01 T00101036  RH  071%=      5-min Rain = 0
KEN1 080544Z 08004KT 01/M04 A303 RMK A01 T00101036  RH  071%=      5-min Rain = 0
KEN1 080545Z 08004KT 01/M04 A303 RMK A01 T00101036  RH  071%=      5-min Rain = 0
KEN1 080546Z 08004KT 01/M04 A303 RMK A01 T00101036  RH  071%=      5-min Rain = 0
KEN1 080547Z 08003KT 01/M04 A303 RMK A01 T00101036  RH  071%=      5-min Rain = 0
KEN1 080548Z 08003KT 01/M04 A303 RMK A01 T00101036  RH  072%=      5-min Rain = 0
KEN1 080549Z 07003KT 01/M04 A303 RMK A01 T00101035  RH  072%=      5-min Rain = 0
KEN1 080550Z 08003KT 01/M04 A303 RMK A01 T00101035  RH  072%=      5-min Rain = 0
KEN1 080551Z 07003KT 01/M04 A303 RMK A01 T00101035  RH  072%=      5-min Rain = 0
KEN1 080552Z 07003KT 01/M04 A303 RMK A01 T00101035  RH  072%=      5-min Rain = 0
KEN1 080553Z 07003KT 01/M04 A303 RMK A01 T00101036  RH  072%=      5-min Rain = 0
KEN1 080554Z 07003KT 01/M04 A303 RMK A01 T00101036  RH  072%=      5-min Rain = 0
KEN1 080555Z 08003KT 01/M04 A303 RMK A01 T00101036  RH  072%=      5-min Rain = 0
KEN1 080556Z 07003KT 01/M04 A303 RMK A01 T00101036  RH  072%=      5-min Rain = 0
KEN1 080557Z 07002KT 01/M04 A303 RMK A01 T00101036  RH  072%=      5-min Rain = 0
KEN1 080558Z 07002KT 01/M04 A303 RMK A01 T00101035  RH  072%=      5-min Rain = 0
KEN1 080559Z 06003KT 01/M04 A303 RMK A01 T00101035  RH  072%=      5-min Rain = 0

Page generated in 0.0784 seconds.